Time,TemperatureF,DewpointF,PressureIn,WindDirection,WindDirectionDegrees,WindSpeedMPH,WindSpeedGustMPH,Humidity,HourlyPrecipIn,Conditions,Clouds,dailyrainin,SoftwareType,DateUTC
2013-05-29 00:01:00,73.3,70.5,29.99,East,94,0.0,9.0,91,0.00,,---,0.42,VWS V14.01,2013-05-29 04:01:00,
2013-05-29 00:02:00,73.3,70.5,29.99,East,94,0.0,9.0,91,0.00,,---,0.42,VWS V14.01,2013-05-29 04:02:00,
2013-05-29 00:07:00,73.2,70.4,29.99,East,97,0.0,1.0,91,0.00,,---,0.00,VWS V14.01,2013-05-29 04:07:00,
2013-05-29 00:08:00,73.2,70.4,29.99,ENE,72,2.0,7.0,91,0.00,,---,0.00,VWS V14.01,2013-05-29 04:08:00,
2013-05-29 00:09:00,73.2,70.4,29.99,ENE,72,0.0,7.0,91,0.00,,---,0.00,VWS V14.01,2013-05-29 04:09:00,
2013-05-29 00:13:00,73.2,70.4,29.99,East,96,0.0,7.0,91,0.00,,---,0.00,VWS V14.01,2013-05-29 04:13:00,
2013-05-29 00:14:00,73.2,70.4,29.99,East,96,0.0,7.0,91,0.00,,---,0.00,VWS V14.01,2013-05-29 04:14:00,
2013-05-29 00:16:00,73.2,70.4,29.99,East,91,0.0,7.0,91,0.00,,---,0.00,VWS V14.01,2013-05-29 04:16:00,
2013-05-29 00:17:00,73.2,70.4,29.99,East,93,0.0,7.0,91,0.00,,---,0.00,VWS V14.01,2013-05-29 04:17:00,
2013-05-29 00:19:00,73.2,70.4,29.99,East,93,0.0,7.0,91,0.00,,---,0.00,VWS V14.01,2013-05-29 04:19:00,
2013-05-29 00:20:00,73.2,70.4,29.99,East,93,0.0,7.0,91,0.00,,---,0.00,VWS V14.01,2013-05-29 04:20:00,
2013-05-29 00:22:00,73.2,70.4,29.99,East,88,5.0,7.0,91,0.00,,---,0.00,VWS V14.01,2013-05-29 04:22:00,
2013-05-29 00:24:00,73.0,70.2,29.99,East,88,0.0,7.0,91,0.00,,---,0.00,VWS V14.01,2013-05-29 04:24:00,
2013-05-29 00:28:00,73.0,70.5,29.99,East,86,0.0,7.0,92,0.00,,---,0.00,VWS V14.01,2013-05-29 04:28:00,
2013-05-29 00:29:00,73.0,70.5,29.99,East,98,0.0,7.0,92,0.00,,---,0.00,VWS V14.01,2013-05-29 04:29:00,
2013-05-29 00:30:00,73.0,70.5,29.99,East,98,0.0,7.0,92,0.00,,---,0.00,VWS V14.01,2013-05-29 04:30:00,
2013-05-29 00:33:00,73.0,70.5,29.99,East,98,0.0,7.0,92,0.00,,---,0.00,VWS V14.01,2013-05-29 04:33:00,
2013-05-29 00:35:00,73.0,70.5,29.99,East,98,0.0,7.0,92,0.00,,---,0.00,VWS V14.01,2013-05-29 04:35:00,
2013-05-29 00:37:00,73.0,70.5,29.99,East,97,0.0,7.0,92,0.00,,---,0.00,VWS V14.01,2013-05-29 04:37:00,
2013-05-29 00:39:00,72.8,70.3,29.99,ENE,72,3.0,7.0,92,0.00,,---,0.00,VWS V14.01,2013-05-29 04:39:00,
2013-05-29 00:40:00,72.8,70.3,29.99,ENE,73,0.0,7.0,92,0.00,,---,0.00,VWS V14.01,2013-05-29 04:40:00,
2013-05-29 00:42:00,72.8,70.3,29.99,ENE,74,4.0,7.0,92,0.00,,---,0.00,VWS V14.01,2013-05-29 04:42:00,
2013-05-29 00:44:00,72.8,70.3,29.99,ENE,74,0.0,7.0,92,0.00,,---,0.00,VWS V14.01,2013-05-29 04:44:00,
2013-05-29 00:45:00,72.8,70.3,29.99,ENE,74,0.0,7.0,92,0.00,,---,0.00,VWS V14.01,2013-05-29 04:45:00,
2013-05-29 00:46:00,72.8,70.3,29.99,East,79,0.0,7.0,92,0.00,,---,0.00,VWS V14.01,2013-05-29 04:46:00,
2013-05-29 00:47:00,72.8,70.3,29.99,East,80,2.0,7.0,92,0.00,,---,0.00,VWS V14.01,2013-05-29 04:47:00,
2013-05-29 00:49:00,72.8,70.3,29.99,East,94,6.0,7.0,92,0.00,,---,0.00,VWS V14.01,2013-05-29 04:49:00,
2013-05-29 00:51:00,72.7,70.2,29.99,East,94,2.0,7.0,92,0.00,,---,0.00,VWS V14.01,2013-05-29 04:51:00,
2013-05-29 00:52:00,72.7,70.2,29.99,East,92,0.0,7.0,92,0.00,,---,0.00,VWS V14.01,2013-05-29 04:52:00,
2013-05-29 00:54:00,72.7,70.2,29.99,East,92,0.0,7.0,92,0.00,,---,0.00,VWS V14.01,2013-05-29 04:54:00,
2013-05-29 00:55:00,72.7,70.2,29.99,East,88,6.0,7.0,92,0.00,,---,0.00,VWS V14.01,2013-05-29 04:55:00,
2013-05-29 00:56:00,72.7,70.2,29.99,East,87,5.0,7.0,92,0.00,,---,0.00,VWS V14.01,2013-05-29 04:56:00,
2013-05-29 00:57:00,72.7,70.6,29.99,East,86,0.0,7.0,93,0.00,,---,0.00,VWS V14.01,2013-05-29 04:57:00,
2013-05-29 01:00:00,72.7,70.6,29.99,ESE,106,6.0,7.0,93,0.00,,---,0.00,VWS V14.01,2013-05-29 05:00:00,
2013-05-29 01:02:00,72.5,70.4,29.99,ESE,105,1.0,7.0,93,0.00,,---,0.00,VWS V14.01,2013-05-29 05:02:00,
2013-05-29 01:03:00,72.5,70.4,29.99,ESE,105,0.0,7.0,93,0.00,,---,0.00,VWS V14.01,2013-05-29 05:03:00,
2013-05-29 01:05:00,72.5,70.4,29.99,ENE,72,1.0,4.0,93,0.00,,---,0.00,VWS V14.01,2013-05-29 05:05:00,
2013-05-29 01:06:00,72.5,70.4,29.99,ENE,72,1.0,4.0,93,0.00,,---,0.00,VWS V14.01,2013-05-29 05:06:00,
2013-05-29 01:08:00,72.5,70.4,29.99,NE,49,0.0,5.0,93,0.00,,---,0.00,VWS V14.01,2013-05-29 05:08:00,
2013-05-29 01:09:00,72.5,70.4,29.99,SE,133,0.0,5.0,93,0.00,,---,0.00,VWS V14.01,2013-05-29 05:09:00,
2013-05-29 01:10:00,72.5,70.4,29.99,East,101,4.0,5.0,93,0.00,,---,0.00,VWS V14.01,2013-05-29 05:10:00,
2013-05-29 01:12:00,72.3,70.2,29.99,East,84,0.0,5.0,93,0.00,,---,0.00,VWS V14.01,2013-05-29 05:12:00,
2013-05-29 01:14:00,72.3,70.2,29.99,East,83,4.0,5.0,93,0.00,,---,0.00,VWS V14.01,2013-05-29 05:14:00,
2013-05-29 01:16:00,72.3,70.2,29.99,East,84,0.0,5.0,93,0.00,,---,0.00,VWS V14.01,2013-05-29 05:16:00,
2013-05-29 01:17:00,72.3,70.2,29.99,East,84,0.0,5.0,93,0.00,,---,0.00,VWS V14.01,2013-05-29 05:17:00,
2013-05-29 01:18:00,72.3,70.2,29.98,East,84,6.0,6.0,93,0.00,,---,0.00,VWS V14.01,2013-05-29 05:18:00,
2013-05-29 01:20:00,72.3,70.2,29.98,East,91,5.0,6.0,93,0.00,,---,0.00,VWS V14.01,2013-05-29 05:20:00,
2013-05-29 01:21:00,72.3,70.2,29.98,East,91,0.0,6.0,93,0.00,,---,0.00,VWS V14.01,2013-05-29 05:21:00,
2013-05-29 01:23:00,72.3,70.2,29.98,East,86,0.0,6.0,93,0.00,,---,0.00,VWS V14.01,2013-05-29 05:23:00,
2013-05-29 01:24:00,72.3,70.2,29.98,East,86,0.0,6.0,93,0.00,,---,0.00,VWS V14.01,2013-05-29 05:24:00,
2013-05-29 01:25:00,72.3,70.2,29.98,ENE,70,1.0,6.0,93,0.00,,---,0.00,VWS V14.01,2013-05-29 05:25:00,
2013-05-29 01:26:00,72.3,70.2,29.98,ENE,58,5.0,6.0,93,0.00,,---,0.00,VWS V14.01,2013-05-29 05:26:00,
2013-05-29 01:29:00,72.1,70.0,29.98,ENE,59,0.0,6.0,93,0.00,,---,0.00,VWS V14.01,2013-05-29 05:29:00,
2013-05-29 01:31:00,72.1,70.0,29.98,ENE,59,0.0,6.0,93,0.00,,---,0.00,VWS V14.01,2013-05-29 05:31:00,
2013-05-29 01:32:00,72.1,70.0,29.98,ENE,59,0.0,6.0,93,0.00,,---,0.00,VWS V14.01,2013-05-29 05:32:00,
2013-05-29 01:34:00,72.1,70.0,29.98,ENE,59,0.0,6.0,93,0.00,,---,0.00,VWS V14.01,2013-05-29 05:34:00,
2013-05-29 01:37:00,72.1,70.0,29.98,ENE,59,0.0,6.0,93,0.00,,---,0.00,VWS V14.01,2013-05-29 05:37:00,
2013-05-29 01:38:00,72.1,70.0,29.98,ENE,59,0.0,6.0,93,0.00,,---,0.00,VWS V14.01,2013-05-29 05:38:00,
2013-05-29 01:39:00,72.1,70.0,29.98,ENE,59,0.0,6.0,93,0.00,,---,0.00,VWS V14.01,2013-05-29 05:39:00,
2013-05-29 01:40:00,72.1,70.0,29.98,ENE,59,0.0,6.0,93,0.00,,---,0.00,VWS V14.01,2013-05-29 05:40:00,
2013-05-29 01:41:00,72.1,70.0,29.98,ENE,59,0.0,6.0,93,0.00,,---,0.00,VWS V14.01,2013-05-29 05:41:00,
2013-05-29 01:43:00,72.1,70.0,29.98,ENE,59,0.0,6.0,93,0.00,,---,0.00,VWS V14.01,2013-05-29 05:43:00,
2013-05-29 01:46:00,72.1,70.3,29.98,ENE,59,0.0,6.0,94,0.00,,---,0.00,VWS V14.01,2013-05-29 05:46:00,
2013-05-29 01:47:00,72.1,70.3,29.98,ENE,59,0.0,6.0,94,0.00,,---,0.00,VWS V14.01,2013-05-29 05:47:00,
2013-05-29 01:48:00,72.1,70.3,29.98,ENE,59,0.0,6.0,94,0.00,,---,0.00,VWS V14.01,2013-05-29 05:48:00,
2013-05-29 01:50:00,72.1,70.3,29.98,ENE,59,0.0,6.0,94,0.00,,---,0.00,VWS V14.01,2013-05-29 05:50:00,
2013-05-29 01:52:00,72.1,70.3,29.98,ENE,59,0.0,6.0,94,0.00,,---,0.00,VWS V14.01,2013-05-29 05:52:00,
2013-05-29 01:53:00,72.1,70.3,29.98,ENE,59,0.0,6.0,94,0.00,,---,0.00,VWS V14.01,2013-05-29 05:53:00,
2013-05-29 01:54:00,72.1,70.3,29.98,ENE,59,0.0,6.0,94,0.00,,---,0.00,VWS V14.01,2013-05-29 05:54:00,
2013-05-29 01:55:00,72.1,70.3,29.98,ENE,59,0.0,6.0,94,0.00,,---,0.00,VWS V14.01,2013-05-29 05:55:00,
2013-05-29 01:56:00,72.0,70.2,29.98,ENE,59,4.0,6.0,94,0.00,,---,0.00,VWS V14.01,2013-05-29 05:56:00,
2013-05-29 01:58:00,72.0,70.2,29.98,ENE,59,0.0,6.0,94,0.00,,---,0.00,VWS V14.01,2013-05-29 05:58:00,
2013-05-29 02:00:00,72.0,70.2,29.98,ENE,59,0.0,6.0,94,0.00,,---,0.00,VWS V14.01,2013-05-29 06:00:00,
2013-05-29 02:01:00,72.0,70.2,29.98,ENE,59,0.0,6.0,94,0.00,,---,0.00,VWS V14.01,2013-05-29 06:01:00,
2013-05-29 02:04:00,72.0,70.2,29.98,ENE,59,0.0,0.0,94,0.00,,---,0.00,VWS V14.01,2013-05-29 06:04:00,
2013-05-29 02:06:00,72.0,70.2,29.98,ENE,59,0.0,0.0,94,0.00,,---,0.00,VWS V14.01,2013-05-29 06:06:00,
2013-05-29 02:07:00,72.0,70.2,29.98,ENE,59,6.0,6.0,94,0.00,,---,0.00,VWS V14.01,2013-05-29 06:07:00,
2013-05-29 02:08:00,72.0,70.2,29.98,ENE,59,0.0,6.0,94,0.00,,---,0.00,VWS V14.01,2013-05-29 06:08:00,
2013-05-29 02:10:00,72.0,70.2,29.98,ENE,59,0.0,6.0,94,0.00,,---,0.00,VWS V14.01,2013-05-29 06:10:00,
2013-05-29 02:12:00,71.8,70.0,29.98,ENE,64,0.0,6.0,94,0.00,,---,0.00,VWS V14.01,2013-05-29 06:12:00,
2013-05-29 02:13:00,71.8,70.0,29.98,ENE,64,0.0,6.0,94,0.00,,---,0.00,VWS V14.01,2013-05-29 06:13:00,
2013-05-29 02:15:00,71.8,70.0,29.98,ESE,103,0.0,6.0,94,0.00,,---,0.00,VWS V14.01,2013-05-29 06:15:00,
2013-05-29 02:16:00,71.8,70.0,29.98,ESE,103,0.0,6.0,94,0.00,,---,0.00,VWS V14.01,2013-05-29 06:16:00,
2013-05-29 02:17:00,71.8,70.0,29.98,ENE,57,0.0,6.0,94,0.00,,---,0.00,VWS V14.01,2013-05-29 06:17:00,
2013-05-29 02:19:00,71.8,70.0,29.98,ENE,57,0.0,6.0,94,0.00,,---,0.00,VWS V14.01,2013-05-29 06:19:00,
2013-05-29 02:21:00,71.8,70.0,29.98,ENE,57,4.0,6.0,94,0.00,,---,0.00,VWS V14.01,2013-05-29 06:21:00,
2013-05-29 02:24:00,71.8,70.0,29.98,ENE,58,0.0,6.0,94,0.00,,---,0.00,VWS V14.01,2013-05-29 06:24:00,
2013-05-29 02:25:00,71.8,70.0,29.98,ENE,58,0.0,6.0,94,0.00,,---,0.00,VWS V14.01,2013-05-29 06:25:00,
2013-05-29 02:26:00,71.8,70.0,29.98,ENE,57,0.0,6.0,94,0.00,,---,0.00,VWS V14.01,2013-05-29 06:26:00,
2013-05-29 02:27:00,71.8,70.0,29.98,East,84,0.0,6.0,94,0.00,,---,0.00,VWS V14.01,2013-05-29 06:27:00,
2013-05-29 02:29:00,71.8,70.0,29.98,East,84,0.0,6.0,94,0.00,,---,0.00,VWS V14.01,2013-05-29 06:29:00,
2013-05-29 02:31:00,71.6,69.8,29.98,East,84,0.0,6.0,94,0.00,,---,0.00,VWS V14.01,2013-05-29 06:31:00,
2013-05-29 02:32:00,71.6,70.1,29.98,East,84,0.0,6.0,95,0.00,,---,0.00,VWS V14.01,2013-05-29 06:32:00,
2013-05-29 02:35:00,71.6,69.8,29.97,East,84,0.0,6.0,94,0.00,,---,0.00,VWS V14.01,2013-05-29 06:35:00,
2013-05-29 02:36:00,71.6,69.8,29.97,East,85,0.0,6.0,94,0.00,,---,0.00,VWS V14.01,2013-05-29 06:36:00,
2013-05-29 02:38:00,71.6,70.1,29.97,East,85,0.0,6.0,95,0.00,,---,0.00,VWS V14.01,2013-05-29 06:38:00,
2013-05-29 02:40:00,71.6,70.1,29.97,East,96,0.0,6.0,95,0.00,,---,0.00,VWS V14.01,2013-05-29 06:40:00,
2013-05-29 02:41:00,71.6,70.1,29.97,East,96,0.0,6.0,95,0.00,,---,0.00,VWS V14.01,2013-05-29 06:41:00,
2013-05-29 02:42:00,71.6,70.1,29.97,East,96,0.0,6.0,95,0.00,,---,0.00,VWS V14.01,2013-05-29 06:42:00,
2013-05-29 02:44:00,71.6,70.1,29.97,East,97,0.0,6.0,95,0.00,,---,0.00,VWS V14.01,2013-05-29 06:44:00,
2013-05-29 02:47:00,71.6,70.1,29.97,East,97,0.0,6.0,95,0.00,,---,0.00,VWS V14.01,2013-05-29 06:47:00,
2013-05-29 02:48:00,71.6,70.1,29.97,East,97,0.0,6.0,95,0.00,,---,0.00,VWS V14.01,2013-05-29 06:48:00,
2013-05-29 02:49:00,71.6,70.1,29.97,East,100,0.0,6.0,95,0.00,,---,0.00,VWS V14.01,2013-05-29 06:49:00,
2013-05-29 02:50:00,71.6,70.1,29.97,East,100,0.0,6.0,95,0.00,,---,0.00,VWS V14.01,2013-05-29 06:50:00,
2013-05-29 02:53:00,71.6,70.1,29.97,East,94,0.0,6.0,95,0.00,,---,0.00,VWS V14.01,2013-05-29 06:53:00,
2013-05-29 02:55:00,71.6,70.1,29.97,East,94,0.0,6.0,95,0.00,,---,0.00,VWS V14.01,2013-05-29 06:55:00,
2013-05-29 02:59:00,71.6,70.1,29.97,East,94,0.0,6.0,95,0.00,,---,0.00,VWS V14.01,2013-05-29 06:59:00,
2013-05-29 03:00:00,71.5,70.0,29.97,East,94,0.0,6.0,95,0.00,,---,0.00,VWS V14.01,2013-05-29 07:00:00,
2013-05-29 03:01:00,71.5,70.0,29.97,East,94,0.0,6.0,95,0.00,,---,0.00,VWS V14.01,2013-05-29 07:01:00,
2013-05-29 03:02:00,71.5,70.0,29.97,East,94,0.0,6.0,95,0.00,,---,0.00,VWS V14.01,2013-05-29 07:02:00,
2013-05-29 03:04:00,71.5,70.0,29.97,East,94,0.0,6.0,95,0.00,,---,0.00,VWS V14.01,2013-05-29 07:04:00,
2013-05-29 03:06:00,71.5,70.0,29.97,ESE,111,0.0,5.0,95,0.00,,---,0.00,VWS V14.01,2013-05-29 07:06:00,
2013-05-29 03:07:00,71.5,70.0,29.97,ESE,111,0.0,5.0,95,0.00,,---,0.00,VWS V14.01,2013-05-29 07:07:00,
2013-05-29 03:08:00,71.5,70.0,29.97,ESE,111,0.0,5.0,95,0.00,,---,0.00,VWS V14.01,2013-05-29 07:08:00,
2013-05-29 03:09:00,71.5,70.0,29.97,ESE,111,0.0,5.0,95,0.00,,---,0.00,VWS V14.01,2013-05-29 07:09:00,
2013-05-29 03:10:00,71.5,70.0,29.97,ESE,111,0.0,5.0,95,0.00,,---,0.00,VWS V14.01,2013-05-29 07:10:00,
2013-05-29 03:13:00,71.5,70.0,29.97,ESE,110,0.0,5.0,95,0.00,,---,0.00,VWS V14.01,2013-05-29 07:13:00,
2013-05-29 03:15:00,71.5,70.0,29.97,ESE,110,0.0,5.0,95,0.00,,---,0.00,VWS V14.01,2013-05-29 07:15:00,
2013-05-29 03:16:00,71.5,70.0,29.97,East,94,0.0,5.0,95,0.00,,---,0.00,VWS V14.01,2013-05-29 07:16:00,
2013-05-29 03:18:00,71.5,70.0,29.97,East,94,0.0,5.0,95,0.00,,---,0.00,VWS V14.01,2013-05-29 07:18:00,
2013-05-29 03:21:00,71.3,69.8,29.97,East,95,0.0,5.0,95,0.00,,---,0.00,VWS V14.01,2013-05-29 07:21:00,
2013-05-29 03:22:00,71.3,69.8,29.97,East,95,0.0,5.0,95,0.00,,---,0.00,VWS V14.01,2013-05-29 07:22:00,
2013-05-29 03:23:00,71.3,69.8,29.97,East,95,0.0,5.0,95,0.00,,---,0.00,VWS V14.01,2013-05-29 07:23:00,
2013-05-29 03:24:00,71.3,69.8,29.97,East,95,4.0,5.0,95,0.00,,---,0.00,VWS V14.01,2013-05-29 07:24:00,
2013-05-29 03:27:00,71.3,69.8,29.97,East,89,1.0,5.0,95,0.00,,---,0.00,VWS V14.01,2013-05-29 07:27:00,
2013-05-29 03:29:00,71.3,69.8,29.97,East,82,0.0,5.0,95,0.00,,---,0.00,VWS V14.01,2013-05-29 07:29:00,
2013-05-29 03:30:00,71.3,69.8,29.97,East,82,0.0,5.0,95,0.00,,---,0.00,VWS V14.01,2013-05-29 07:30:00,
2013-05-29 03:31:00,71.3,69.8,29.97,East,82,0.0,5.0,95,0.00,,---,0.00,VWS V14.01,2013-05-29 07:31:00,
2013-05-29 03:35:00,71.1,69.6,29.97,ENE,70,6.0,6.0,95,0.00,,---,0.00,VWS V14.01,2013-05-29 07:35:00,
2013-05-29 03:36:00,71.1,69.6,29.97,ENE,74,0.0,6.0,95,0.00,,---,0.00,VWS V14.01,2013-05-29 07:36:00,
2013-05-29 03:37:00,71.1,69.6,29.97,East,89,6.0,6.0,95,0.00,,---,0.00,VWS V14.01,2013-05-29 07:37:00,
2013-05-29 03:38:00,71.1,69.6,29.97,East,91,0.0,6.0,95,0.00,,---,0.00,VWS V14.01,2013-05-29 07:38:00,
2013-05-29 03:40:00,71.1,69.6,29.97,East,101,5.0,8.0,95,0.00,,---,0.00,VWS V14.01,2013-05-29 07:40:00,
2013-05-29 03:42:00,71.1,69.6,29.97,ESE,102,0.0,8.0,95,0.00,,---,0.00,VWS V14.01,2013-05-29 07:42:00,
2013-05-29 03:43:00,71.1,69.6,29.97,East,101,0.0,8.0,95,0.00,,---,0.00,VWS V14.01,2013-05-29 07:43:00,
2013-05-29 03:45:00,71.1,69.6,29.97,East,101,0.0,8.0,95,0.00,,---,0.00,VWS V14.01,2013-05-29 07:45:00,
2013-05-29 03:47:00,71.1,69.6,29.97,East,91,0.0,8.0,95,0.00,,---,0.00,VWS V14.01,2013-05-29 07:47:00,
2013-05-29 03:48:00,71.1,69.6,29.97,East,91,0.0,8.0,95,0.00,,---,0.00,VWS V14.01,2013-05-29 07:48:00,
2013-05-29 03:49:00,71.1,69.6,29.96,East,83,2.0,8.0,95,0.00,,---,0.00,VWS V14.01,2013-05-29 07:49:00,
2013-05-29 03:50:00,71.1,69.6,29.96,East,84,3.0,8.0,95,0.00,,---,0.00,VWS V14.01,2013-05-29 07:50:00,
2013-05-29 03:53:00,71.1,69.6,29.96,East,92,0.0,8.0,95,0.00,,---,0.00,VWS V14.01,2013-05-29 07:53:00,
2013-05-29 03:54:00,71.1,69.6,29.96,East,92,5.0,8.0,95,0.00,,---,0.00,VWS V14.01,2013-05-29 07:54:00,
2013-05-29 03:55:00,71.1,69.6,29.96,East,92,0.0,8.0,95,0.00,,---,0.00,VWS V14.01,2013-05-29 07:55:00,
2013-05-29 03:56:00,71.1,69.6,29.96,East,92,0.0,8.0,95,0.00,,---,0.00,VWS V14.01,2013-05-29 07:56:00,
2013-05-29 04:00:00,71.1,69.6,29.96,East,86,8.0,8.0,95,0.00,,---,0.00,VWS V14.01,2013-05-29 08:00:00,
2013-05-29 04:01:00,71.1,69.6,29.96,East,86,0.0,8.0,95,0.00,,---,0.00,VWS V14.01,2013-05-29 08:01:00,
2013-05-29 04:02:00,71.1,69.6,29.96,East,86,0.0,8.0,95,0.00,,---,0.00,VWS V14.01,2013-05-29 08:02:00,
2013-05-29 04:06:00,71.1,69.6,29.96,ESE,116,0.0,6.0,95,0.00,,---,0.00,VWS V14.01,2013-05-29 08:06:00,
2013-05-29 04:07:00,71.1,69.9,29.96,ESE,116,0.0,6.0,96,0.00,,---,0.00,VWS V14.01,2013-05-29 08:07:00,
2013-05-29 04:08:00,71.1,69.9,29.96,ESE,109,0.0,6.0,96,0.00,,---,0.00,VWS V14.01,2013-05-29 08:08:00,
2013-05-29 04:11:00,71.1,69.9,29.96,ESE,109,0.0,6.0,96,0.00,,---,0.00,VWS V14.01,2013-05-29 08:11:00,
2013-05-29 04:12:00,71.1,69.9,29.96,ESE,109,2.0,6.0,96,0.00,,---,0.00,VWS V14.01,2013-05-29 08:12:00,
2013-05-29 04:13:00,71.1,69.9,29.96,ESE,109,0.0,6.0,96,0.00,,---,0.00,VWS V14.01,2013-05-29 08:13:00,
2013-05-29 04:14:00,71.1,69.9,29.96,ESE,109,0.0,6.0,96,0.00,,---,0.00,VWS V14.01,2013-05-29 08:14:00,
2013-05-29 04:17:00,71.1,69.9,29.96,SE,134,0.0,6.0,96,0.00,,---,0.00,VWS V14.01,2013-05-29 08:17:00,
2013-05-29 04:18:00,71.1,69.9,29.95,ESE,103,2.0,6.0,96,0.00,,---,0.00,VWS V14.01,2013-05-29 08:18:00,
2013-05-29 04:19:00,71.1,69.9,29.95,ESE,103,0.0,6.0,96,0.00,,---,0.00,VWS V14.01,2013-05-29 08:19:00,
2013-05-29 04:20:00,71.1,69.9,29.95,ESE,103,1.0,6.0,96,0.00,,---,0.00,VWS V14.01,2013-05-29 08:20:00,
2013-05-29 04:22:00,71.1,69.9,29.95,ESE,103,0.0,6.0,96,0.00,,---,0.00,VWS V14.01,2013-05-29 08:22:00,
2013-05-29 04:23:00,71.1,69.9,29.95,ESE,103,0.0,6.0,96,0.00,,---,0.00,VWS V14.01,2013-05-29 08:23:00,
2013-05-29 04:24:00,71.1,69.9,29.95,ESE,103,0.0,6.0,96,0.00,,---,0.00,VWS V14.01,2013-05-29 08:24:00,
2013-05-29 04:26:00,71.1,69.9,29.95,ENE,78,0.0,6.0,96,0.00,,---,0.00,VWS V14.01,2013-05-29 08:26:00,
2013-05-29 04:27:00,71.1,69.9,29.95,East,79,0.0,6.0,96,0.00,,---,0.00,VWS V14.01,2013-05-29 08:27:00,
2013-05-29 04:30:00,71.1,69.9,29.95,East,79,0.0,7.0,96,0.00,,---,0.00,VWS V14.01,2013-05-29 08:30:00,
2013-05-29 04:32:00,71.1,69.9,29.95,ENE,78,0.0,7.0,96,0.00,,---,0.00,VWS V14.01,2013-05-29 08:32:00,
2013-05-29 04:33:00,71.1,69.9,29.95,ENE,78,0.0,7.0,96,0.00,,---,0.00,VWS V14.01,2013-05-29 08:33:00,
2013-05-29 04:34:00,71.1,69.9,29.95,ENE,78,0.0,7.0,96,0.00,,---,0.00,VWS V14.01,2013-05-29 08:34:00,
2013-05-29 04:35:00,71.1,69.9,29.95,ENE,78,0.0,7.0,96,0.00,,---,0.00,VWS V14.01,2013-05-29 08:35:00,
2013-05-29 04:36:00,71.1,69.9,29.95,East,79,0.0,7.0,96,0.00,,---,0.00,VWS V14.01,2013-05-29 08:36:00,
2013-05-29 04:38:00,71.1,69.9,29.95,East,92,0.0,7.0,96,0.00,,---,0.00,VWS V14.01,2013-05-29 08:38:00,
2013-05-29 04:39:00,71.1,69.9,29.95,East,92,0.0,7.0,96,0.00,,---,0.00,VWS V14.01,2013-05-29 08:39:00,
2013-05-29 04:42:00,71.1,69.9,29.95,ENE,65,5.0,7.0,96,0.00,,---,0.00,VWS V14.01,2013-05-29 08:42:00,
2013-05-29 04:43:00,71.1,69.9,29.95,East,84,0.0,7.0,96,0.00,,---,0.00,VWS V14.01,2013-05-29 08:43:00,
2013-05-29 04:45:00,71.1,69.9,29.95,East,84,0.0,7.0,96,0.00,,---,0.00,VWS V14.01,2013-05-29 08:45:00,
2013-05-29 04:46:00,71.1,69.9,29.95,East,84,0.0,7.0,96,0.00,,---,0.00,VWS V14.01,2013-05-29 08:46:00,
2013-05-29 04:48:00,71.1,69.9,29.95,East,84,0.0,7.0,96,0.00,,---,0.00,VWS V14.01,2013-05-29 08:48:00,
2013-05-29 04:49:00,70.9,69.7,29.95,East,84,0.0,7.0,96,0.00,,---,0.00,VWS V14.01,2013-05-29 08:49:00,
2013-05-29 04:51:00,70.9,69.7,29.95,East,84,0.0,7.0,96,0.00,,---,0.00,VWS V14.01,2013-05-29 08:51:00,
2013-05-29 04:54:00,70.9,69.7,29.95,East,84,0.0,7.0,96,0.00,,---,0.00,VWS V14.01,2013-05-29 08:54:00,
2013-05-29 04:56:00,70.9,69.7,29.95,East,80,0.0,7.0,96,0.00,,---,0.00,VWS V14.01,2013-05-29 08:56:00,
2013-05-29 04:59:00,70.9,69.7,29.95,East,80,0.0,7.0,96,0.00,,---,0.00,VWS V14.01,2013-05-29 08:59:00,
2013-05-29 05:00:00,71.1,69.9,29.95,East,81,0.0,7.0,96,0.00,,---,0.00,VWS V14.01,2013-05-29 09:00:00,
2013-05-29 05:02:00,71.1,69.9,29.95,East,81,0.0,7.0,96,0.00,,---,0.00,VWS V14.01,2013-05-29 09:02:00,
2013-05-29 05:05:00,70.9,69.7,29.95,East,81,0.0,0.0,96,0.00,,---,0.00,VWS V14.01,2013-05-29 09:05:00,
2013-05-29 05:06:00,71.1,69.9,29.95,East,89,2.0,5.0,96,0.00,,---,0.00,VWS V14.01,2013-05-29 09:06:00,
2013-05-29 05:07:00,71.1,69.9,29.95,East,91,0.0,6.0,96,0.00,,---,0.00,VWS V14.01,2013-05-29 09:07:00,
2013-05-29 05:10:00,71.1,69.9,29.95,East,96,0.0,6.0,96,0.00,,---,0.00,VWS V14.01,2013-05-29 09:10:00,
2013-05-29 05:11:00,71.1,69.9,29.95,East,95,0.0,6.0,96,0.00,,---,0.00,VWS V14.01,2013-05-29 09:11:00,
2013-05-29 05:12:00,71.1,69.9,29.95,East,98,0.0,6.0,96,0.00,,---,0.00,VWS V14.01,2013-05-29 09:12:00,
2013-05-29 05:13:00,71.1,69.9,29.95,East,98,0.0,6.0,96,0.00,,---,0.00,VWS V14.01,2013-05-29 09:13:00,
2013-05-29 05:16:00,71.1,69.9,29.95,ESE,104,0.0,6.0,96,0.00,,---,0.00,VWS V14.01,2013-05-29 09:16:00,
2013-05-29 05:18:00,71.1,69.9,29.94,ESE,104,0.0,6.0,96,0.00,,---,0.00,VWS V14.01,2013-05-29 09:18:00,
2013-05-29 05:19:00,71.1,69.9,29.94,ESE,104,0.0,6.0,96,0.00,,---,0.00,VWS V14.01,2013-05-29 09:19:00,
2013-05-29 05:21:00,71.1,69.9,29.94,ESE,104,0.0,6.0,96,0.00,,---,0.00,VWS V14.01,2013-05-29 09:21:00,
2013-05-29 05:23:00,70.9,69.7,29.94,ESE,104,0.0,6.0,96,0.00,,---,0.00,VWS V14.01,2013-05-29 09:23:00,
2013-05-29 05:24:00,70.9,70.0,29.94,ESE,104,0.0,6.0,97,0.00,,---,0.00,VWS V14.01,2013-05-29 09:24:00,
2013-05-29 05:26:00,70.9,70.0,29.94,ESE,104,0.0,6.0,97,0.00,,---,0.00,VWS V14.01,2013-05-29 09:26:00,
2013-05-29 05:28:00,70.9,70.0,29.94,ESE,104,0.0,6.0,97,0.00,,---,0.00,VWS V14.01,2013-05-29 09:28:00,
2013-05-29 05:29:00,71.1,70.2,29.94,NE,51,0.0,7.0,97,0.00,,---,0.00,VWS V14.01,2013-05-29 09:29:00,
2013-05-29 05:30:00,70.9,70.0,29.94,ESE,104,4.0,7.0,97,0.00,,---,0.00,VWS V14.01,2013-05-29 09:30:00,
2013-05-29 05:32:00,71.1,70.2,29.94,ESE,108,0.0,7.0,97,0.00,,---,0.00,VWS V14.01,2013-05-29 09:32:00,
2013-05-29 05:33:00,71.1,70.2,29.95,East,94,5.0,7.0,97,0.00,,---,0.00,VWS V14.01,2013-05-29 09:33:00,
2013-05-29 05:35:00,71.1,70.2,29.95,East,94,0.0,7.0,97,0.00,,---,0.00,VWS V14.01,2013-05-29 09:35:00,
2013-05-29 05:38:00,71.1,70.2,29.95,East,94,0.0,7.0,97,0.00,,---,0.00,VWS V14.01,2013-05-29 09:38:00,
2013-05-29 05:39:00,70.9,69.7,29.95,East,91,4.0,7.0,96,0.00,,---,0.00,VWS V14.01,2013-05-29 09:39:00,
2013-05-29 05:41:00,70.9,70.0,29.95,East,91,0.0,7.0,97,0.00,,---,0.00,VWS V14.01,2013-05-29 09:41:00,
2013-05-29 05:43:00,70.9,70.0,29.95,East,91,0.0,7.0,97,0.00,,---,0.00,VWS V14.01,2013-05-29 09:43:00,
2013-05-29 05:45:00,70.9,70.0,29.95,East,91,0.0,7.0,97,0.00,,---,0.00,VWS V14.01,2013-05-29 09:45:00,
2013-05-29 05:46:00,70.9,69.7,29.95,East,91,0.0,7.0,96,0.00,,---,0.00,VWS V14.01,2013-05-29 09:46:00,
2013-05-29 05:47:00,70.9,70.0,29.95,East,91,0.0,7.0,97,0.00,,---,0.00,VWS V14.01,2013-05-29 09:47:00,
2013-05-29 05:48:00,70.9,70.0,29.95,East,91,2.0,7.0,97,0.00,,---,0.00,VWS V14.01,2013-05-29 09:48:00,
2013-05-29 05:51:00,70.9,70.0,29.95,East,86,0.0,7.0,97,0.00,,---,0.00,VWS V14.01,2013-05-29 09:51:00,
2013-05-29 05:52:00,70.9,70.0,29.95,East,86,0.0,7.0,97,0.00,,---,0.00,VWS V14.01,2013-05-29 09:52:00,
2013-05-29 05:53:00,70.9,70.0,29.95,East,86,4.0,7.0,97,0.00,,---,0.00,VWS V14.01,2013-05-29 09:53:00,
2013-05-29 05:54:00,70.9,70.0,29.95,East,86,0.0,7.0,97,0.00,,---,0.00,VWS V14.01,2013-05-29 09:54:00,
2013-05-29 05:56:00,70.9,70.0,29.95,East,86,0.0,7.0,97,0.00,,---,0.00,VWS V14.01,2013-05-29 09:56:00,
2013-05-29 05:59:00,70.9,70.0,29.95,East,86,0.0,7.0,97,0.00,,---,0.00,VWS V14.01,2013-05-29 09:59:00,
2013-05-29 06:00:00,70.9,70.0,29.95,East,86,0.0,7.0,97,0.00,,---,0.00,VWS V14.01,2013-05-29 10:00:00,
2013-05-29 06:02:00,70.9,70.0,29.95,East,86,0.0,7.0,97,0.00,,---,0.00,VWS V14.01,2013-05-29 10:02:00,
2013-05-29 06:04:00,70.9,70.0,29.95,East,86,0.0,7.0,97,0.00,,---,0.00,VWS V14.01,2013-05-29 10:04:00,
2013-05-29 06:05:00,70.9,70.0,29.95,East,86,0.0,0.0,97,0.00,,---,0.00,VWS V14.01,2013-05-29 10:05:00,
2013-05-29 06:06:00,70.9,70.0,29.95,East,86,0.0,0.0,97,0.00,,---,0.00,VWS V14.01,2013-05-29 10:06:00,
2013-05-29 06:08:00,70.9,70.0,29.95,East,86,0.0,0.0,97,0.00,,---,0.00,VWS V14.01,2013-05-29 10:08:00,
2013-05-29 06:09:00,70.9,70.0,29.95,East,86,0.0,0.0,97,0.00,,---,0.00,VWS V14.01,2013-05-29 10:09:00,
2013-05-29 06:11:00,70.9,70.0,29.95,East,86,0.0,0.0,97,0.00,,---,0.00,VWS V14.01,2013-05-29 10:11:00,
2013-05-29 06:13:00,70.9,70.0,29.95,East,86,0.0,0.0,97,0.00,,---,0.00,VWS V14.01,2013-05-29 10:13:00,
2013-05-29 06:15:00,70.9,70.0,29.95,East,86,0.0,0.0,97,0.00,,---,0.00,VWS V14.01,2013-05-29 10:15:00,
2013-05-29 06:17:00,70.9,70.0,29.95,East,86,3.0,3.0,97,0.00,,---,0.00,VWS V14.01,2013-05-29 10:17:00,
2013-05-29 06:20:00,70.9,70.0,29.95,East,86,0.0,6.0,97,0.00,,---,0.00,VWS V14.01,2013-05-29 10:20:00,
2013-05-29 06:21:00,70.9,70.0,29.95,East,86,0.0,6.0,97,0.00,,---,0.00,VWS V14.01,2013-05-29 10:21:00,
2013-05-29 06:22:00,70.9,70.0,29.95,East,86,0.0,6.0,97,0.00,,---,0.00,VWS V14.01,2013-05-29 10:22:00,
2013-05-29 06:25:00,71.1,70.2,29.95,ENE,67,0.0,6.0,97,0.00,,---,0.00,VWS V14.01,2013-05-29 10:25:00,
2013-05-29 06:27:00,71.1,70.2,29.95,ENE,74,0.0,6.0,97,0.00,,---,0.00,VWS V14.01,2013-05-29 10:27:00,
2013-05-29 06:28:00,71.1,70.2,29.95,ENE,74,0.0,6.0,97,0.00,,---,0.00,VWS V14.01,2013-05-29 10:28:00,
2013-05-29 06:30:00,71.1,70.2,29.95,ENE,74,0.0,6.0,97,0.00,,---,0.00,VWS V14.01,2013-05-29 10:30:00,
2013-05-29 06:32:00,71.1,70.2,29.95,East,87,0.0,6.0,97,0.00,,---,0.00,VWS V14.01,2013-05-29 10:32:00,
2013-05-29 06:33:00,71.1,70.2,29.95,East,87,3.0,6.0,97,0.00,,---,0.00,VWS V14.01,2013-05-29 10:33:00,
2013-05-29 06:34:00,71.1,70.2,29.95,East,87,0.0,6.0,97,0.00,,---,0.00,VWS V14.01,2013-05-29 10:34:00,
2013-05-29 06:36:00,71.1,70.2,29.95,East,95,0.0,6.0,97,0.00,,---,0.00,VWS V14.01,2013-05-29 10:36:00,
2013-05-29 06:37:00,71.1,70.2,29.95,East,95,1.0,6.0,97,0.00,,---,0.00,VWS V14.01,2013-05-29 10:37:00,
2013-05-29 06:38:00,71.1,70.2,29.95,East,96,0.0,6.0,97,0.00,,---,0.00,VWS V14.01,2013-05-29 10:38:00,
2013-05-29 06:41:00,71.1,70.2,29.95,East,96,0.0,6.0,97,0.00,,---,0.00,VWS V14.01,2013-05-29 10:41:00,
2013-05-29 06:42:00,71.1,70.2,29.95,East,96,0.0,6.0,97,0.00,,---,0.00,VWS V14.01,2013-05-29 10:42:00,
2013-05-29 06:43:00,71.1,70.2,29.95,East,96,5.0,6.0,97,0.00,,---,0.00,VWS V14.01,2013-05-29 10:43:00,
2013-05-29 06:47:00,71.1,70.2,29.95,East,96,0.0,6.0,97,0.00,,---,0.00,VWS V14.01,2013-05-29 10:47:00,
2013-05-29 06:48:00,71.1,70.2,29.96,East,96,0.0,6.0,97,0.00,,---,0.00,VWS V14.01,2013-05-29 10:48:00,
2013-05-29 06:49:00,71.1,70.2,29.96,East,96,0.0,6.0,97,0.00,,---,0.00,VWS V14.01,2013-05-29 10:49:00,
2013-05-29 06:50:00,71.1,70.2,29.96,East,96,0.0,6.0,97,0.00,,---,0.00,VWS V14.01,2013-05-29 10:50:00,
2013-05-29 06:52:00,71.1,70.2,29.96,East,96,0.0,6.0,97,0.00,,---,0.00,VWS V14.01,2013-05-29 10:52:00,
2013-05-29 06:53:00,71.1,70.2,29.96,East,96,0.0,6.0,97,0.00,,---,0.00,VWS V14.01,2013-05-29 10:53:00,
2013-05-29 06:55:00,71.1,70.2,29.96,East,96,0.0,6.0,97,0.00,,---,0.00,VWS V14.01,2013-05-29 10:55:00,
2013-05-29 07:00:00,71.3,70.4,29.96,East,96,0.0,6.0,97,0.00,,---,0.00,VWS V14.01,2013-05-29 11:00:00,
2013-05-29 07:01:00,71.3,70.4,29.96,East,96,0.0,6.0,97,0.00,,---,0.00,VWS V14.01,2013-05-29 11:01:00,
2013-05-29 07:02:00,71.3,70.4,29.96,East,91,5.0,6.0,97,0.00,,---,0.00,VWS V14.01,2013-05-29 11:02:00,
2013-05-29 07:03:00,71.3,70.4,29.97,East,91,0.0,6.0,97,0.00,,---,0.00,VWS V14.01,2013-05-29 11:03:00,
2013-05-29 07:06:00,71.3,70.4,29.97,East,91,0.0,0.0,97,0.00,,---,0.00,VWS V14.01,2013-05-29 11:06:00,
2013-05-29 07:07:00,71.5,70.6,29.97,East,91,0.0,0.0,97,0.00,,---,0.00,VWS V14.01,2013-05-29 11:07:00,
2013-05-29 07:08:00,71.5,70.6,29.97,East,91,0.0,0.0,97,0.00,,---,0.00,VWS V14.01,2013-05-29 11:08:00,
2013-05-29 07:11:00,71.6,70.7,29.97,East,91,0.0,0.0,97,0.00,,---,0.00,VWS V14.01,2013-05-29 11:11:00,
2013-05-29 07:13:00,71.6,70.7,29.97,East,91,0.0,0.0,97,0.00,,---,0.00,VWS V14.01,2013-05-29 11:13:00,
2013-05-29 07:14:00,71.6,70.7,29.97,East,91,0.0,0.0,97,0.00,,---,0.00,VWS V14.01,2013-05-29 11:14:00,
2013-05-29 07:17:00,71.8,70.6,29.97,East,90,0.0,5.0,96,0.00,,---,0.00,VWS V14.01,2013-05-29 11:17:00,
2013-05-29 07:18:00,71.8,70.6,29.97,East,90,0.0,5.0,96,0.00,,---,0.00,VWS V14.01,2013-05-29 11:18:00,
2013-05-29 07:19:00,71.8,70.6,29.97,East,90,0.0,5.0,96,0.00,,---,0.00,VWS V14.01,2013-05-29 11:19:00,
2013-05-29 07:22:00,72.0,70.8,29.97,ENE,62,4.0,5.0,96,0.00,,---,0.00,VWS V14.01,2013-05-29 11:22:00,
2013-05-29 07:23:00,72.0,70.8,29.97,ENE,62,0.0,5.0,96,0.00,,---,0.00,VWS V14.01,2013-05-29 11:23:00,
2013-05-29 07:24:00,72.1,70.9,29.97,ENE,62,0.0,5.0,96,0.00,,---,0.00,VWS V14.01,2013-05-29 11:24:00,
2013-05-29 07:28:00,72.3,71.1,29.97,ENE,63,0.0,5.0,96,0.00,,---,0.00,VWS V14.01,2013-05-29 11:28:00,
2013-05-29 07:29:00,72.3,71.1,29.97,ENE,63,0.0,5.0,96,0.00,,---,0.00,VWS V14.01,2013-05-29 11:29:00,
2013-05-29 07:30:00,72.3,71.1,29.97,ENE,63,0.0,5.0,96,0.00,,---,0.00,VWS V14.01,2013-05-29 11:30:00,
2013-05-29 07:31:00,72.3,71.1,29.97,ENE,60,3.0,5.0,96,0.00,,---,0.00,VWS V14.01,2013-05-29 11:31:00,
2013-05-29 07:34:00,72.5,71.3,29.98,East,82,5.0,7.0,96,0.00,,---,0.00,VWS V14.01,2013-05-29 11:34:00,
2013-05-29 07:36:00,72.7,71.2,29.98,ESE,108,0.0,7.0,95,0.00,,---,0.00,VWS V14.01,2013-05-29 11:36:00,
2013-05-29 07:38:00,72.8,71.3,29.98,East,98,0.0,7.0,95,0.00,,---,0.00,VWS V14.01,2013-05-29 11:38:00,
2013-05-29 07:40:00,72.8,71.3,29.98,East,98,0.0,7.0,95,0.00,,---,0.00,VWS V14.01,2013-05-29 11:40:00,
2013-05-29 07:41:00,73.0,71.5,29.98,East,98,0.0,7.0,95,0.00,,---,0.00,VWS V14.01,2013-05-29 11:41:00,
2013-05-29 07:42:00,73.0,71.5,29.98,East,98,0.0,7.0,95,0.00,,---,0.00,VWS V14.01,2013-05-29 11:42:00,
2013-05-29 07:43:00,73.0,71.5,29.98,East,97,0.0,7.0,95,0.00,,---,0.00,VWS V14.01,2013-05-29 11:43:00,
2013-05-29 07:45:00,73.2,71.4,29.98,East,94,5.0,8.0,94,0.00,,---,0.00,VWS V14.01,2013-05-29 11:45:00,
2013-05-29 07:47:00,73.3,71.5,29.98,ENE,64,0.0,8.0,94,0.00,,---,0.00,VWS V14.01,2013-05-29 11:47:00,
2013-05-29 07:48:00,73.3,71.5,29.98,ENE,65,0.0,8.0,94,0.00,,---,0.00,VWS V14.01,2013-05-29 11:48:00,
2013-05-29 07:49:00,73.3,71.5,29.98,ENE,65,0.0,8.0,94,0.00,,---,0.00,VWS V14.01,2013-05-29 11:49:00,
2013-05-29 07:50:00,73.3,71.5,29.98,ENE,65,0.0,8.0,94,0.00,,---,0.00,VWS V14.01,2013-05-29 11:50:00,
2013-05-29 07:52:00,73.5,71.4,29.98,ENE,65,5.0,8.0,93,0.00,,---,0.00,VWS V14.01,2013-05-29 11:52:00,
2013-05-29 07:54:00,73.7,71.6,29.98,East,82,5.0,8.0,93,0.00,,---,0.00,VWS V14.01,2013-05-29 11:54:00,
2013-05-29 07:55:00,73.9,71.8,29.98,NE,56,0.0,8.0,93,0.00,,---,0.00,VWS V14.01,2013-05-29 11:55:00,
2013-05-29 07:56:00,73.9,71.8,29.98,ESE,107,0.0,8.0,93,0.00,,---,0.00,VWS V14.01,2013-05-29 11:56:00,
2013-05-29 07:57:00,73.9,71.4,29.98,ESE,107,0.0,8.0,92,0.00,,---,0.00,VWS V14.01,2013-05-29 11:57:00,
2013-05-29 07:58:00,74.0,71.5,29.98,East,96,1.0,8.0,92,0.00,,---,0.00,VWS V14.01,2013-05-29 11:58:00,
2013-05-29 08:00:00,74.0,71.5,29.98,ESE,108,7.0,8.0,92,0.00,,---,0.00,VWS V14.01,2013-05-29 12:00:00,
2013-05-29 08:01:00,74.0,71.5,29.98,ESE,104,0.0,8.0,92,0.00,,---,0.00,VWS V14.01,2013-05-29 12:01:00,
2013-05-29 08:03:00,74.2,71.4,29.98,East,93,5.0,8.0,91,0.00,,---,0.00,VWS V14.01,2013-05-29 12:03:00,
2013-05-29 08:04:00,74.4,71.6,29.99,SE,136,0.0,8.0,91,0.00,,---,0.00,VWS V14.01,2013-05-29 12:04:00,
2013-05-29 08:06:00,74.6,71.8,29.99,ESE,117,1.0,1.0,91,0.00,,---,0.00,VWS V14.01,2013-05-29 12:06:00,
2013-05-29 08:07:00,74.7,71.6,29.99,NE,52,0.0,1.0,90,0.00,,---,0.00,VWS V14.01,2013-05-29 12:07:00,
2013-05-29 08:08:00,74.7,71.6,29.99,NE,53,8.0,9.0,90,0.00,,---,0.00,VWS V14.01,2013-05-29 12:08:00,
2013-05-29 08:09:00,74.7,71.2,29.99,East,91,3.0,9.0,89,0.00,,---,0.00,VWS V14.01,2013-05-29 12:09:00,
2013-05-29 08:11:00,74.7,71.2,29.99,ENE,58,8.0,9.0,89,0.00,,---,0.00,VWS V14.01,2013-05-29 12:11:00,
2013-05-29 08:13:00,74.7,70.9,29.99,ESE,115,1.0,9.0,88,0.00,,---,0.00,VWS V14.01,2013-05-29 12:13:00,
2013-05-29 08:15:00,74.9,71.1,29.99,NE,50,6.0,9.0,88,0.00,,---,0.00,VWS V14.01,2013-05-29 12:15:00,
2013-05-29 08:17:00,74.9,71.1,29.99,ENE,63,1.0,9.0,88,0.00,,---,0.00,VWS V14.01,2013-05-29 12:17:00,
2013-05-29 08:18:00,75.1,71.3,29.99,NNE,28,7.0,9.0,88,0.00,,---,0.00,VWS V14.01,2013-05-29 12:18:00,
2013-05-29 08:19:00,75.1,71.3,29.99,East,96,11.0,11.0,88,0.00,,---,0.00,VWS V14.01,2013-05-29 12:19:00,
2013-05-29 08:23:00,75.3,70.8,29.99,ENE,63,6.0,11.0,86,0.00,,---,0.00,VWS V14.01,2013-05-29 12:23:00,
2013-05-29 08:24:00,75.4,70.9,29.99,ENE,74,6.0,11.0,86,0.00,,---,0.00,VWS V14.01,2013-05-29 12:24:00,
2013-05-29 08:25:00,75.4,70.9,29.99,East,88,9.0,11.0,86,0.00,,---,0.00,VWS V14.01,2013-05-29 12:25:00,
2013-05-29 08:28:00,75.6,71.1,29.99,ESE,104,0.0,11.0,86,0.00,,---,0.00,VWS V14.01,2013-05-29 12:28:00,
2013-05-29 08:29:00,75.8,71.3,29.99,NE,46,5.0,11.0,86,0.00,,---,0.00,VWS V14.01,2013-05-29 12:29:00,
2013-05-29 08:30:00,75.8,71.0,29.99,East,93,2.0,11.0,85,0.00,,---,0.00,VWS V14.01,2013-05-29 12:30:00,
2013-05-29 08:34:00,76.0,71.2,29.99,ENE,63,0.0,11.0,85,0.00,,---,0.00,VWS V14.01,2013-05-29 12:34:00,
2013-05-29 08:35:00,76.0,71.2,29.99,ENE,63,5.0,11.0,85,0.00,,---,0.00,VWS V14.01,2013-05-29 12:35:00,
2013-05-29 08:36:00,76.1,71.3,29.99,East,79,0.0,11.0,85,0.00,,---,0.00,VWS V14.01,2013-05-29 12:36:00,
2013-05-29 08:38:00,76.5,71.3,29.99,East,94,2.0,11.0,84,0.00,,---,0.00,VWS V14.01,2013-05-29 12:38:00,
2013-05-29 08:41:00,76.7,71.5,29.99,East,96,5.0,11.0,84,0.00,,---,0.00,VWS V14.01,2013-05-29 12:41:00,
2013-05-29 08:43:00,76.8,71.2,29.99,East,92,1.0,11.0,83,0.00,,---,0.00,VWS V14.01,2013-05-29 12:43:00,
2013-05-29 08:44:00,77.0,71.4,29.99,East,91,0.0,11.0,83,0.00,,---,0.00,VWS V14.01,2013-05-29 12:44:00,
2013-05-29 08:46:00,77.4,71.5,29.99,ESE,120,6.0,11.0,82,0.00,,---,0.00,VWS V14.01,2013-05-29 12:46:00,
2013-05-29 08:48:00,77.4,71.5,29.99,NE,56,8.0,11.0,82,0.00,,---,0.00,VWS V14.01,2013-05-29 12:48:00,
2013-05-29 08:49:00,77.6,71.7,29.99,ENE,57,5.0,11.0,82,0.00,,---,0.00,VWS V14.01,2013-05-29 12:49:00,
2013-05-29 08:51:00,77.6,71.3,29.99,East,91,0.0,11.0,81,0.00,,---,0.00,VWS V14.01,2013-05-29 12:51:00,
2013-05-29 08:52:00,77.6,70.9,29.99,East,91,0.0,11.0,80,0.00,,---,0.00,VWS V14.01,2013-05-29 12:52:00,
2013-05-29 08:54:00,77.7,71.0,29.99,ESE,122,1.0,11.0,80,0.00,,---,0.00,VWS V14.01,2013-05-29 12:54:00,
2013-05-29 08:55:00,77.7,71.0,29.99,ESE,122,0.0,11.0,80,0.00,,---,0.00,VWS V14.01,2013-05-29 12:55:00,
2013-05-29 08:57:00,77.9,71.2,29.99,ENE,64,8.0,11.0,80,0.00,,---,0.00,VWS V14.01,2013-05-29 12:57:00,
2013-05-29 08:58:00,78.1,71.1,29.99,NE,53,7.0,11.0,79,0.00,,---,0.00,VWS V14.01,2013-05-29 12:58:00,
2013-05-29 09:01:00,77.9,70.9,29.99,SE,136,8.0,12.0,79,0.00,,---,0.00,VWS V14.01,2013-05-29 13:01:00,
2013-05-29 09:02:00,77.9,70.9,29.99,East,86,8.0,12.0,79,0.00,,---,0.00,VWS V14.01,2013-05-29 13:02:00,
2013-05-29 09:03:00,78.1,71.1,29.99,NNE,32,5.0,12.0,79,0.00,,---,0.00,VWS V14.01,2013-05-29 13:03:00,
2013-05-29 09:04:00,78.1,71.1,29.99,ESE,104,0.0,12.0,79,0.00,,---,0.00,VWS V14.01,2013-05-29 13:04:00,
2013-05-29 09:06:00,78.3,71.3,29.99,ENE,70,1.0,11.0,79,0.00,,---,0.00,VWS V14.01,2013-05-29 13:06:00,
2013-05-29 09:07:00,78.3,71.3,29.99,ENE,70,1.0,11.0,79,0.00,,---,0.00,VWS V14.01,2013-05-29 13:07:00,
2013-05-29 09:10:00,78.3,71.3,29.99,ESE,103,2.0,11.0,79,0.00,,---,0.00,VWS V14.01,2013-05-29 13:10:00,
2013-05-29 09:11:00,78.5,71.1,29.99,ESE,102,0.0,11.0,78,0.00,,---,0.00,VWS V14.01,2013-05-29 13:11:00,
2013-05-29 09:12:00,78.5,71.1,29.99,ENE,58,3.0,11.0,78,0.00,,---,0.00,VWS V14.01,2013-05-29 13:12:00,
2013-05-29 09:13:00,78.5,71.1,29.99,ENE,63,6.0,11.0,78,0.00,,---,0.00,VWS V14.01,2013-05-29 13:13:00,
2013-05-29 09:14:00,78.6,71.2,29.99,ENE,61,0.0,11.0,78,0.00,,---,0.00,VWS V14.01,2013-05-29 13:14:00,
2013-05-29 09:15:00,78.6,70.8,29.99,SE,124,1.0,11.0,77,0.00,,---,0.00,VWS V14.01,2013-05-29 13:15:00,
2013-05-29 09:18:00,78.8,70.6,29.99,ENE,69,0.0,11.0,76,0.00,,---,0.00,VWS V14.01,2013-05-29 13:18:00,
2013-05-29 09:19:00,79.0,70.8,29.99,ESE,103,6.0,11.0,76,0.00,,---,0.00,VWS V14.01,2013-05-29 13:19:00,
2013-05-29 09:20:00,79.2,70.6,29.99,SE,135,0.0,11.0,75,0.00,,---,0.00,VWS V14.01,2013-05-29 13:20:00,
2013-05-29 09:24:00,79.4,70.0,29.99,ENE,78,9.0,11.0,73,0.00,,---,0.00,VWS V14.01,2013-05-29 13:24:00,
2013-05-29 09:25:00,79.6,70.6,29.99,ENE,75,3.0,11.0,74,0.00,,---,0.00,VWS V14.01,2013-05-29 13:25:00,
2013-05-29 09:28:00,79.6,70.6,29.99,ESE,105,3.0,11.0,74,0.00,,---,0.00,VWS V14.01,2013-05-29 13:28:00,
2013-05-29 09:30:00,79.8,70.4,29.99,ESE,105,1.0,11.0,73,0.00,,---,0.00,VWS V14.01,2013-05-29 13:30:00,
2013-05-29 09:31:00,79.8,70.4,29.99,SE,134,4.0,11.0,73,0.00,,---,0.00,VWS V14.01,2013-05-29 13:31:00,
2013-05-29 09:33:00,79.9,69.7,30.00,East,97,8.0,11.0,71,0.00,,---,0.00,VWS V14.01,2013-05-29 13:33:00,
2013-05-29 09:36:00,80.1,69.9,30.00,ESE,110,5.0,11.0,71,0.00,,---,0.00,VWS V14.01,2013-05-29 13:36:00,
2013-05-29 09:38:00,80.1,69.9,30.00,ESE,122,5.0,11.0,71,0.00,,---,0.00,VWS V14.01,2013-05-29 13:38:00,
2013-05-29 09:39:00,80.3,70.1,30.00,ESE,117,0.0,11.0,71,0.00,,---,0.00,VWS V14.01,2013-05-29 13:39:00,
2013-05-29 09:43:00,80.5,70.7,30.00,SSE,155,0.0,11.0,72,0.00,,---,0.00,VWS V14.01,2013-05-29 13:43:00,
2013-05-29 09:44:00,80.7,70.4,30.00,East,96,7.0,11.0,71,0.00,,---,0.00,VWS V14.01,2013-05-29 13:44:00,
2013-05-29 09:45:00,80.7,70.4,30.00,South,172,8.0,11.0,71,0.00,,---,0.00,VWS V14.01,2013-05-29 13:45:00,
2013-05-29 09:46:00,80.9,71.0,30.00,East,82,6.0,11.0,72,0.00,,---,0.00,VWS V14.01,2013-05-29 13:46:00,
2013-05-29 09:48:00,80.9,70.6,30.00,ESE,113,4.0,11.0,71,0.00,,---,0.00,VWS V14.01,2013-05-29 13:48:00,
2013-05-29 09:49:00,80.9,70.6,30.00,NE,44,7.0,11.0,71,0.00,,---,0.00,VWS V14.01,2013-05-29 13:49:00,
2013-05-29 09:50:00,80.9,70.6,30.00,ENE,72,8.0,11.0,71,0.00,,---,0.00,VWS V14.01,2013-05-29 13:50:00,
2013-05-29 09:53:00,81.1,71.2,30.00,SE,127,0.0,11.0,72,0.00,,---,0.00,VWS V14.01,2013-05-29 13:53:00,
2013-05-29 09:55:00,81.1,71.2,30.00,NNE,18,9.0,11.0,72,0.00,,---,0.00,VWS V14.01,2013-05-29 13:55:00,
2013-05-29 09:56:00,81.2,70.9,30.00,NE,49,6.0,11.0,71,0.00,,---,0.00,VWS V14.01,2013-05-29 13:56:00,
2013-05-29 09:59:00,81.2,70.9,30.00,East,82,8.0,11.0,71,0.00,,---,0.00,VWS V14.01,2013-05-29 13:59:00,
2013-05-29 10:00:00,81.2,70.9,30.00,ESE,103,12.0,12.0,71,0.00,,---,0.00,VWS V14.01,2013-05-29 14:00:00,
2013-05-29 10:01:00,81.1,70.8,30.00,East,95,8.0,12.0,71,0.00,,---,0.00,VWS V14.01,2013-05-29 14:01:00,
2013-05-29 10:04:00,81.1,70.8,29.99,East,101,6.0,8.0,71,0.00,,---,0.00,VWS V14.01,2013-05-29 14:04:00,
2013-05-29 10:08:00,81.1,70.8,29.99,East,82,0.0,8.0,71,0.00,,---,0.00,VWS V14.01,2013-05-29 14:08:00,
2013-05-29 10:09:00,81.1,70.8,29.99,ESE,115,3.0,8.0,71,0.00,,---,0.00,VWS V14.01,2013-05-29 14:09:00,
2013-05-29 10:10:00,81.2,70.9,29.99,SE,127,0.0,8.0,71,0.00,,---,0.00,VWS V14.01,2013-05-29 14:10:00,
2013-05-29 10:11:00,81.2,70.5,29.99,ESE,122,2.0,8.0,70,0.00,,---,0.00,VWS V14.01,2013-05-29 14:11:00,
2013-05-29 10:14:00,81.6,70.4,29.99,East,98,10.0,10.0,69,0.00,,---,0.00,VWS V14.01,2013-05-29 14:14:00,
2013-05-29 10:15:00,81.6,70.0,29.99,East,83,2.0,10.0,68,0.00,,---,0.00,VWS V14.01,2013-05-29 14:15:00,
2013-05-29 10:16:00,81.6,70.0,29.99,ENE,70,9.0,10.0,68,0.00,,---,0.00,VWS V14.01,2013-05-29 14:16:00,
2013-05-29 10:20:00,81.2,70.1,30.00,ESE,105,11.0,11.0,69,0.00,,---,0.00,VWS V14.01,2013-05-29 14:20:00,
2013-05-29 10:21:00,81.2,70.5,30.00,SSE,155,11.0,11.0,70,0.00,,---,0.00,VWS V14.01,2013-05-29 14:21:00,
2013-05-29 10:22:00,81.2,70.5,30.00,SSE,168,7.0,11.0,70,0.00,,---,0.00,VWS V14.01,2013-05-29 14:22:00,
2013-05-29 10:23:00,81.2,70.5,30.00,SSE,168,7.0,11.0,70,0.00,,---,0.00,VWS V14.01,2013-05-29 14:23:00,
2013-05-29 10:24:00,81.2,70.5,30.00,East,93,0.0,11.0,70,0.00,,---,0.00,VWS V14.01,2013-05-29 14:24:00,
2013-05-29 10:26:00,81.2,70.5,30.00,SE,131,0.0,11.0,70,0.00,,---,0.00,VWS V14.01,2013-05-29 14:26:00,
2013-05-29 10:29:00,81.4,71.1,30.00,ENE,72,9.0,11.0,71,0.00,,---,0.00,VWS V14.01,2013-05-29 14:29:00,
2013-05-29 10:30:00,81.4,71.1,30.00,ENE,65,1.0,11.0,71,0.00,,---,0.00,VWS V14.01,2013-05-29 14:30:00,
2013-05-29 10:32:00,81.4,70.3,30.00,East,84,8.0,11.0,69,0.00,,---,0.00,VWS V14.01,2013-05-29 14:32:00,
2013-05-29 10:36:00,81.2,70.1,30.00,SE,135,0.0,11.0,69,0.00,,---,0.00,VWS V14.01,2013-05-29 14:36:00,
2013-05-29 10:37:00,81.1,70.4,30.00,SE,125,5.0,11.0,70,0.00,,---,0.00,VWS V14.01,2013-05-29 14:37:00,
2013-05-29 10:38:00,81.1,70.0,30.00,ESE,113,5.0,11.0,69,0.00,,---,0.00,VWS V14.01,2013-05-29 14:38:00,
2013-05-29 10:43:00,81.2,69.6,30.00,ESE,110,3.0,11.0,68,0.00,,---,0.00,VWS V14.01,2013-05-29 14:43:00,
2013-05-29 10:44:00,81.2,69.6,30.00,ENE,70,3.0,11.0,68,0.00,,---,0.00,VWS V14.01,2013-05-29 14:44:00,
2013-05-29 10:45:00,81.2,69.6,30.00,ESE,102,6.0,11.0,68,0.00,,---,0.00,VWS V14.01,2013-05-29 14:45:00,
2013-05-29 10:46:00,81.2,69.6,30.00,ESE,102,6.0,11.0,68,0.00,,---,0.00,VWS V14.01,2013-05-29 14:46:00,
2013-05-29 10:48:00,81.1,69.6,30.00,East,85,5.0,11.0,68,0.00,,---,0.00,VWS V14.01,2013-05-29 14:48:00,
2013-05-29 10:49:00,81.1,69.6,30.00,East,88,10.0,11.0,68,0.00,,---,0.00,VWS V14.01,2013-05-29 14:49:00,
2013-05-29 10:50:00,81.1,69.6,30.00,East,86,4.0,11.0,68,0.00,,---,0.00,VWS V14.01,2013-05-29 14:50:00,
2013-05-29 10:53:00,81.2,69.6,30.00,SE,134,4.0,11.0,68,0.00,,---,0.00,VWS V14.01,2013-05-29 14:53:00,
2013-05-29 10:54:00,81.2,69.6,30.00,East,86,10.0,11.0,68,0.00,,---,0.00,VWS V14.01,2013-05-29 14:54:00,
2013-05-29 10:55:00,81.4,69.4,30.00,East,83,9.0,11.0,67,0.00,,---,0.00,VWS V14.01,2013-05-29 14:55:00,
2013-05-29 10:56:00,81.6,69.6,30.00,NNE,33,5.0,11.0,67,0.00,,---,0.00,VWS V14.01,2013-05-29 14:56:00,
2013-05-29 10:58:00,82.0,69.1,30.00,ESE,118,5.0,11.0,65,0.00,,---,0.00,VWS V14.01,2013-05-29 14:58:00,
2013-05-29 11:00:00,82.0,69.1,30.00,ESE,103,6.0,11.0,65,0.00,,---,0.00,VWS V14.01,2013-05-29 15:00:00,
2013-05-29 11:02:00,82.0,69.5,30.00,East,91,6.0,11.0,66,0.00,,---,0.00,VWS V14.01,2013-05-29 15:02:00,
2013-05-29 11:03:00,82.0,69.1,30.00,East,88,0.0,11.0,65,0.00,,---,0.00,VWS V14.01,2013-05-29 15:03:00,
2013-05-29 11:04:00,82.0,69.1,30.00,ESE,110,13.0,13.0,65,0.00,,---,0.00,VWS V14.01,2013-05-29 15:04:00,
2013-05-29 11:06:00,82.0,69.5,30.00,East,101,7.0,12.0,66,0.00,,---,0.00,VWS V14.01,2013-05-29 15:06:00,
2013-05-29 11:08:00,82.2,69.7,30.00,East,94,7.0,12.0,66,0.00,,---,0.00,VWS V14.01,2013-05-29 15:08:00,
2013-05-29 11:09:00,82.2,69.7,30.00,East,99,5.0,12.0,66,0.00,,---,0.00,VWS V14.01,2013-05-29 15:09:00,
2013-05-29 11:10:00,82.2,69.7,30.00,ENE,73,5.0,12.0,66,0.00,,---,0.00,VWS V14.01,2013-05-29 15:10:00,
2013-05-29 11:12:00,82.0,69.1,30.00,NE,46,7.0,12.0,65,0.00,,---,0.00,VWS V14.01,2013-05-29 15:12:00,
2013-05-29 11:13:00,81.8,68.9,30.00,SE,127,8.0,12.0,65,0.00,,---,0.00,VWS V14.01,2013-05-29 15:13:00,
2013-05-29 11:15:00,81.8,68.9,30.00,SE,139,10.0,12.0,65,0.00,,---,0.00,VWS V14.01,2013-05-29 15:15:00,
2013-05-29 11:16:00,81.8,69.3,30.00,SE,132,0.0,12.0,66,0.00,,---,0.00,VWS V14.01,2013-05-29 15:16:00,
2013-05-29 11:17:00,82.0,69.5,30.00,East,91,8.0,12.0,66,0.00,,---,0.00,VWS V14.01,2013-05-29 15:17:00,
2013-05-29 11:20:00,82.4,69.5,30.00,ENE,62,0.0,12.0,65,0.00,,---,0.00,VWS V14.01,2013-05-29 15:20:00,
2013-05-29 11:22:00,82.8,68.9,30.00,ESE,123,10.0,16.0,63,0.00,,---,0.00,VWS V14.01,2013-05-29 15:22:00,
2013-05-29 11:24:00,82.6,68.7,30.00,NE,53,4.0,16.0,63,0.00,,---,0.00,VWS V14.01,2013-05-29 15:24:00,
2013-05-29 11:25:00,82.6,68.7,30.00,East,91,6.0,16.0,63,0.00,,---,0.00,VWS V14.01,2013-05-29 15:25:00,
2013-05-29 11:28:00,82.4,69.0,30.00,East,101,8.0,16.0,64,0.00,,---,0.00,VWS V14.01,2013-05-29 15:28:00,
2013-05-29 11:31:00,82.4,69.0,30.00,East,91,6.0,16.0,64,0.00,,---,0.00,VWS V14.01,2013-05-29 15:31:00,
2013-05-29 11:32:00,82.4,68.6,30.00,East,88,9.0,16.0,63,0.00,,---,0.00,VWS V14.01,2013-05-29 15:32:00,
2013-05-29 11:33:00,82.6,68.7,30.00,ENE,57,8.0,16.0,63,0.00,,---,0.00,VWS V14.01,2013-05-29 15:33:00,
2013-05-29 11:36:00,82.6,68.7,30.00,ESE,109,12.0,16.0,63,0.00,,---,0.00,VWS V14.01,2013-05-29 15:36:00,
2013-05-29 11:37:00,82.8,68.9,30.00,SSE,148,8.0,16.0,63,0.00,,---,0.00,VWS V14.01,2013-05-29 15:37:00,
2013-05-29 11:38:00,83.0,69.1,30.00,ESE,103,0.0,16.0,63,0.00,,---,0.00,VWS V14.01,2013-05-29 15:38:00,
2013-05-29 11:39:00,83.0,69.1,30.00,NE,51,0.0,16.0,63,0.00,,---,0.00,VWS V14.01,2013-05-29 15:39:00,
2013-05-29 11:41:00,83.4,69.5,30.00,ESE,106,5.0,16.0,63,0.00,,---,0.00,VWS V14.01,2013-05-29 15:41:00,
2013-05-29 11:43:00,83.8,69.4,30.00,SE,131,6.0,16.0,62,0.00,,---,0.00,VWS V14.01,2013-05-29 15:43:00,
2013-05-29 11:44:00,83.8,69.4,30.00,ESE,104,0.0,16.0,62,0.00,,---,0.00,VWS V14.01,2013-05-29 15:44:00,
2013-05-29 11:45:00,84.0,69.6,30.00,SE,124,9.0,16.0,62,0.00,,---,0.00,VWS V14.01,2013-05-29 15:45:00,
2013-05-29 11:47:00,84.0,68.6,30.00,ENE,70,7.0,16.0,60,0.00,,---,0.00,VWS V14.01,2013-05-29 15:47:00,
2013-05-29 11:48:00,84.0,69.1,30.00,East,94,0.0,16.0,61,0.00,,---,0.00,VWS V14.01,2013-05-29 15:48:00,
2013-05-29 11:51:00,84.0,69.1,30.00,ESE,119,6.0,16.0,61,0.00,,---,0.00,VWS V14.01,2013-05-29 15:51:00,
2013-05-29 11:52:00,84.0,69.6,30.00,East,95,6.0,16.0,62,0.00,,---,0.00,VWS V14.01,2013-05-29 15:52:00,
2013-05-29 11:54:00,84.0,69.6,30.00,East,101,9.0,16.0,62,0.00,,---,0.00,VWS V14.01,2013-05-29 15:54:00,
2013-05-29 11:56:00,84.0,69.1,30.00,East,97,0.0,16.0,61,0.00,,---,0.00,VWS V14.01,2013-05-29 15:56:00,
2013-05-29 11:57:00,84.0,69.1,30.00,East,97,0.0,16.0,61,0.00,,---,0.00,VWS V14.01,2013-05-29 15:57:00,
2013-05-29 11:59:00,84.0,69.1,30.00,East,101,7.0,16.0,61,0.00,,---,0.00,VWS V14.01,2013-05-29 15:59:00,
2013-05-29 12:02:00,84.0,69.6,30.00,SE,143,6.0,16.0,62,0.00,,---,0.00,VWS V14.01,2013-05-29 16:02:00,
2013-05-29 12:03:00,84.0,69.6,30.00,SSE,161,12.0,16.0,62,0.00,,---,0.00,VWS V14.01,2013-05-29 16:03:00,
2013-05-29 12:05:00,84.0,69.6,30.00,SSE,161,12.0,16.0,62,0.00,,---,0.00,VWS V14.01,2013-05-29 16:05:00,
2013-05-29 12:07:00,84.0,70.1,30.00,SE,132,6.0,16.0,63,0.00,,---,0.00,VWS V14.01,2013-05-29 16:07:00,
2013-05-29 12:10:00,84.1,69.2,30.00,SE,129,5.0,16.0,61,0.00,,---,0.00,VWS V14.01,2013-05-29 16:10:00,
2013-05-29 12:12:00,84.3,69.4,30.00,SE,129,6.0,16.0,61,0.00,,---,0.00,VWS V14.01,2013-05-29 16:12:00,
2013-05-29 12:13:00,84.1,68.7,30.00,ESE,106,4.0,16.0,60,0.00,,---,0.00,VWS V14.01,2013-05-29 16:13:00,
2013-05-29 12:16:00,84.1,68.7,30.00,ESE,120,1.0,16.0,60,0.00,,---,0.00,VWS V14.01,2013-05-29 16:16:00,
2013-05-29 12:18:00,84.0,68.6,30.00,ENE,58,7.0,16.0,60,0.00,,---,0.00,VWS V14.01,2013-05-29 16:18:00,
2013-05-29 12:19:00,83.8,68.4,29.99,ESE,110,1.0,16.0,60,0.00,,---,0.00,VWS V14.01,2013-05-29 16:19:00,
2013-05-29 12:21:00,84.0,68.6,29.99,East,81,5.0,16.0,60,0.00,,---,0.00,VWS V14.01,2013-05-29 16:21:00,
2013-05-29 12:24:00,84.3,68.9,29.99,South,190,0.0,16.0,60,0.00,,---,0.00,VWS V14.01,2013-05-29 16:24:00,
2013-05-29 12:25:00,84.3,68.9,29.99,SE,132,4.0,16.0,60,0.00,,---,0.00,VWS V14.01,2013-05-29 16:25:00,
2013-05-29 12:27:00,84.5,69.1,29.99,SSE,148,0.0,16.0,60,0.00,,---,0.00,VWS V14.01,2013-05-29 16:27:00,
2013-05-29 12:28:00,84.7,69.3,29.99,ESE,120,6.0,16.0,60,0.00,,---,0.00,VWS V14.01,2013-05-29 16:28:00,
2013-05-29 12:31:00,84.7,69.3,29.99,ESE,110,1.0,16.0,60,0.00,,---,0.00,VWS V14.01,2013-05-29 16:31:00,
2013-05-29 12:32:00,84.5,69.1,29.99,East,97,5.0,16.0,60,0.00,,---,0.00,VWS V14.01,2013-05-29 16:32:00,
2013-05-29 12:33:00,84.5,69.6,29.99,East,79,7.0,16.0,61,0.00,,---,0.00,VWS V14.01,2013-05-29 16:33:00,
2013-05-29 12:34:00,84.3,69.9,29.99,East,91,6.0,16.0,62,0.00,,---,0.00,VWS V14.01,2013-05-29 16:34:00,
2013-05-29 12:36:00,84.1,70.6,29.99,SSE,162,6.0,16.0,64,0.00,,---,0.00,VWS V14.01,2013-05-29 16:36:00,
2013-05-29 12:38:00,84.0,71.0,29.99,East,94,6.0,16.0,65,0.00,,---,0.00,VWS V14.01,2013-05-29 16:38:00,
2013-05-29 12:39:00,83.6,70.6,29.99,East,88,1.0,16.0,65,0.00,,---,0.00,VWS V14.01,2013-05-29 16:39:00,
2013-05-29 12:40:00,83.4,71.3,29.99,East,89,0.0,16.0,67,0.00,,---,0.00,VWS V14.01,2013-05-29 16:40:00,
2013-05-29 12:41:00,83.2,71.1,29.99,East,89,0.0,16.0,67,0.00,,---,0.00,VWS V14.01,2013-05-29 16:41:00,
2013-05-29 12:43:00,82.4,70.8,29.99,SE,139,4.0,16.0,68,0.00,,---,0.00,VWS V14.01,2013-05-29 16:43:00,
2013-05-29 12:44:00,82.2,71.4,29.99,SE,141,0.0,16.0,70,0.00,,---,0.00,VWS V14.01,2013-05-29 16:44:00,
2013-05-29 12:47:00,81.4,71.5,29.99,ESE,109,0.0,16.0,72,0.00,,---,0.00,VWS V14.01,2013-05-29 16:47:00,
2013-05-29 12:48:00,81.2,71.3,30.00,ESE,109,0.0,16.0,72,0.00,,---,0.00,VWS V14.01,2013-05-29 16:48:00,
2013-05-29 12:49:00,81.1,71.2,30.00,ESE,113,0.0,16.0,72,0.00,,---,0.00,VWS V14.01,2013-05-29 16:49:00,
2013-05-29 12:50:00,81.1,71.6,30.00,ESE,105,8.0,16.0,73,0.00,,---,0.00,VWS V14.01,2013-05-29 16:50:00,
2013-05-29 12:54:00,80.3,71.7,30.00,ESE,121,6.0,16.0,75,0.01,,---,0.01,VWS V14.01,2013-05-29 16:54:00,
2013-05-29 12:55:00,79.9,72.1,30.00,SE,139,4.0,16.0,77,0.02,,---,0.02,VWS V14.01,2013-05-29 16:55:00,
2013-05-29 12:56:00,79.6,71.8,30.00,SE,131,5.0,16.0,77,0.02,,---,0.02,VWS V14.01,2013-05-29 16:56:00,
2013-05-29 12:57:00,79.6,71.8,30.00,ESE,120,4.0,16.0,77,0.02,,---,0.02,VWS V14.01,2013-05-29 16:57:00,
2013-05-29 13:00:00,79.2,72.1,30.00,East,91,0.0,16.0,79,0.02,,---,0.02,VWS V14.01,2013-05-29 17:00:00,
2013-05-29 13:01:00,79.2,72.1,30.00,East,91,0.0,16.0,79,0.02,,---,0.02,VWS V14.01,2013-05-29 17:01:00,
2013-05-29 13:02:00,79.2,72.9,30.00,East,91,0.0,16.0,81,0.02,,---,0.02,VWS V14.01,2013-05-29 17:02:00,
2013-05-29 13:03:00,79.2,72.9,29.99,NE,52,3.0,16.0,81,0.02,,---,0.02,VWS V14.01,2013-05-29 17:03:00,
2013-05-29 13:06:00,79.2,72.9,29.99,ENE,57,6.0,6.0,81,0.00,,---,0.02,VWS V14.01,2013-05-29 17:06:00,
2013-05-29 13:07:00,79.2,72.9,29.99,East,79,7.0,7.0,81,0.00,,---,0.02,VWS V14.01,2013-05-29 17:07:00,
2013-05-29 13:08:00,79.4,72.7,29.99,ESE,108,0.0,7.0,80,0.00,,---,0.02,VWS V14.01,2013-05-29 17:08:00,
2013-05-29 13:09:00,79.4,72.7,29.99,ESE,102,4.0,7.0,80,0.00,,---,0.02,VWS V14.01,2013-05-29 17:09:00,
2013-05-29 13:11:00,79.8,71.9,29.99,SE,145,4.0,13.0,77,0.00,,---,0.02,VWS V14.01,2013-05-29 17:11:00,
2013-05-29 13:12:00,80.1,72.2,29.99,East,94,8.0,13.0,77,0.00,,---,0.02,VWS V14.01,2013-05-29 17:12:00,
2013-05-29 13:14:00,80.3,70.9,29.99,East,83,0.0,13.0,73,0.00,,---,0.02,VWS V14.01,2013-05-29 17:14:00,
2013-05-29 13:15:00,80.9,71.0,29.99,East,89,2.0,13.0,72,0.00,,---,0.02,VWS V14.01,2013-05-29 17:15:00,
2013-05-29 13:16:00,81.1,70.8,29.99,SE,126,3.0,13.0,71,0.00,,---,0.02,VWS V14.01,2013-05-29 17:16:00,
2013-05-29 13:18:00,81.2,70.5,29.99,ESE,106,0.0,13.0,70,0.00,,---,0.02,VWS V14.01,2013-05-29 17:18:00,
2013-05-29 13:19:00,81.6,70.9,29.99,NE,41,4.0,13.0,70,0.00,,---,0.02,VWS V14.01,2013-05-29 17:19:00,
2013-05-29 13:22:00,82.0,70.4,29.99,SE,136,7.0,13.0,68,0.00,,---,0.02,VWS V14.01,2013-05-29 17:22:00,
2013-05-29 13:23:00,82.2,70.6,29.99,ESE,123,8.0,13.0,68,0.00,,---,0.02,VWS V14.01,2013-05-29 17:23:00,
2013-05-29 13:26:00,83.0,70.0,29.99,SE,143,6.0,13.0,65,0.00,,---,0.02,VWS V14.01,2013-05-29 17:26:00,
2013-05-29 13:27:00,83.2,69.3,29.99,SE,127,7.0,14.0,63,0.00,,---,0.02,VWS V14.01,2013-05-29 17:27:00,
2013-05-29 13:30:00,83.4,69.0,29.99,ESE,117,4.0,14.0,62,0.00,,---,0.02,VWS V14.01,2013-05-29 17:30:00,
2013-05-29 13:33:00,84.0,69.1,29.99,ENE,71,4.0,14.0,61,0.00,,---,0.02,VWS V14.01,2013-05-29 17:33:00,
2013-05-29 13:35:00,84.5,68.6,29.98,SE,125,4.0,18.0,59,0.00,,---,0.02,VWS V14.01,2013-05-29 17:35:00,
2013-05-29 13:36:00,84.9,69.5,29.98,ESE,112,4.0,18.0,60,0.00,,---,0.02,VWS V14.01,2013-05-29 17:36:00,
2013-05-29 13:38:00,85.3,68.3,29.98,SE,136,6.0,23.0,57,0.00,,---,0.02,VWS V14.01,2013-05-29 17:38:00,
2013-05-29 13:40:00,85.7,68.2,29.98,East,96,9.0,23.0,56,0.00,,---,0.02,VWS V14.01,2013-05-29 17:40:00,
2013-05-29 13:41:00,85.9,68.4,29.98,ESE,122,5.0,23.0,56,0.00,,---,0.02,VWS V14.01,2013-05-29 17:41:00,
2013-05-29 13:42:00,85.9,68.9,29.98,ESE,122,15.0,23.0,57,0.00,,---,0.02,VWS V14.01,2013-05-29 17:42:00,
2013-05-29 13:44:00,86.1,68.1,29.98,ESE,102,7.0,23.0,55,0.00,,---,0.02,VWS V14.01,2013-05-29 17:44:00,
2013-05-29 13:45:00,86.1,68.6,29.98,SE,139,9.0,23.0,56,0.00,,---,0.02,VWS V14.01,2013-05-29 17:45:00,
2013-05-29 13:47:00,86.1,68.6,29.98,SSE,148,6.0,23.0,56,0.00,,---,0.02,VWS V14.01,2013-05-29 17:47:00,
2013-05-29 13:50:00,85.9,68.9,29.98,East,89,2.0,23.0,57,0.00,,---,0.02,VWS V14.01,2013-05-29 17:50:00,
2013-05-29 13:51:00,85.7,69.7,29.98,NE,40,8.0,23.0,59,0.00,,---,0.02,VWS V14.01,2013-05-29 17:51:00,
2013-05-29 13:53:00,85.7,70.2,29.98,NE,56,8.0,23.0,60,0.00,,---,0.02,VWS V14.01,2013-05-29 17:53:00,
2013-05-29 13:54:00,85.5,70.0,29.98,SE,141,7.0,23.0,60,0.00,,---,0.02,VWS V14.01,2013-05-29 17:54:00,
2013-05-29 13:57:00,85.1,69.7,29.98,ENE,68,6.0,23.0,60,0.00,,---,0.02,VWS V14.01,2013-05-29 17:57:00,
2013-05-29 13:58:00,85.1,69.2,29.98,East,84,12.0,23.0,59,0.00,,---,0.02,VWS V14.01,2013-05-29 17:58:00,
2013-05-29 13:59:00,85.1,68.7,29.98,ESE,115,5.0,23.0,58,0.00,,---,0.02,VWS V14.01,2013-05-29 17:59:00,
2013-05-29 14:00:00,85.1,68.7,29.98,ESE,112,7.0,23.0,58,0.00,,---,0.02,VWS V14.01,2013-05-29 18:00:00,
2013-05-29 14:03:00,85.3,68.3,29.98,ENE,63,3.0,23.0,57,0.00,,---,0.02,VWS V14.01,2013-05-29 18:03:00,
2013-05-29 14:05:00,85.5,68.5,29.98,East,92,13.0,13.0,57,0.00,,---,0.02,VWS V14.01,2013-05-29 18:05:00,
2013-05-29 14:10:00,85.5,68.0,29.98,SE,133,5.0,13.0,56,0.00,,---,0.02,VWS V14.01,2013-05-29 18:10:00,
2013-05-29 14:11:00,85.5,68.0,29.98,ESE,123,9.0,13.0,56,0.00,,---,0.02,VWS V14.01,2013-05-29 18:11:00,
2013-05-29 14:13:00,85.5,68.5,29.98,ESE,105,11.0,13.0,57,0.00,,---,0.02,VWS V14.01,2013-05-29 18:13:00,
2013-05-29 14:15:00,85.7,68.2,29.98,SE,128,7.0,13.0,56,0.00,,---,0.02,VWS V14.01,2013-05-29 18:15:00,
2013-05-29 14:17:00,85.9,68.4,29.98,SE,134,0.0,13.0,56,0.00,,---,0.02,VWS V14.01,2013-05-29 18:17:00,
2013-05-29 14:18:00,86.1,69.1,29.97,ENE,72,9.0,13.0,57,0.00,,---,0.02,VWS V14.01,2013-05-29 18:18:00,
2013-05-29 14:20:00,86.3,69.3,29.97,South,190,6.0,13.0,57,0.00,,---,0.02,VWS V14.01,2013-05-29 18:20:00,
2013-05-29 14:21:00,86.5,68.4,29.97,East,88,6.0,14.0,55,0.00,,---,0.02,VWS V14.01,2013-05-29 18:21:00,
2013-05-29 14:22:00,86.7,68.1,29.97,ESE,117,9.0,14.0,54,0.00,,---,0.02,VWS V14.01,2013-05-29 18:22:00,
2013-05-29 14:25:00,87.0,68.4,29.97,South,176,6.0,14.0,54,0.00,,---,0.02,VWS V14.01,2013-05-29 18:25:00,
2013-05-29 14:26:00,87.0,68.4,29.97,ESE,121,7.0,14.0,54,0.00,,---,0.02,VWS V14.01,2013-05-29 18:26:00,
2013-05-29 14:27:00,87.0,68.4,29.97,ESE,115,5.0,14.0,54,0.00,,---,0.02,VWS V14.01,2013-05-29 18:27:00,
2013-05-29 14:32:00,87.0,68.9,29.97,ESE,113,5.0,14.0,55,0.00,,---,0.02,VWS V14.01,2013-05-29 18:32:00,
2013-05-29 14:33:00,86.7,68.6,29.96,ESE,108,6.0,14.0,55,0.00,,---,0.02,VWS V14.01,2013-05-29 18:33:00,
2013-05-29 14:34:00,86.7,69.1,29.96,ENE,70,7.0,14.0,56,0.00,,---,0.02,VWS V14.01,2013-05-29 18:34:00,
2013-05-29 14:35:00,86.5,68.4,29.96,NE,52,6.0,14.0,55,0.00,,---,0.02,VWS V14.01,2013-05-29 18:35:00,
2013-05-29 14:38:00,86.7,69.1,29.96,ESE,113,2.0,14.0,56,0.00,,---,0.02,VWS V14.01,2013-05-29 18:38:00,
2013-05-29 14:39:00,86.7,69.1,29.96,ESE,107,1.0,16.0,56,0.00,,---,0.02,VWS V14.01,2013-05-29 18:39:00,
2013-05-29 14:42:00,86.5,69.0,29.96,SE,139,9.0,16.0,56,0.00,,---,0.02,VWS V14.01,2013-05-29 18:42:00,
2013-05-29 14:43:00,86.5,69.0,29.96,SE,127,2.0,16.0,56,0.00,,---,0.02,VWS V14.01,2013-05-29 18:43:00,
2013-05-29 14:46:00,85.9,69.9,29.96,SE,146,5.0,16.0,59,0.00,,---,0.02,VWS V14.01,2013-05-29 18:46:00,
2013-05-29 14:47:00,85.5,69.1,29.96,SE,143,9.0,16.0,58,0.00,,---,0.02,VWS V14.01,2013-05-29 18:47:00,
2013-05-29 14:48:00,85.3,69.4,29.96,SSE,149,0.0,16.0,59,0.00,,---,0.02,VWS V14.01,2013-05-29 18:48:00,
2013-05-29 14:49:00,85.1,69.2,29.96,ESE,104,9.0,16.0,59,0.00,,---,0.02,VWS V14.01,2013-05-29 18:49:00,
2013-05-29 14:52:00,84.3,70.3,29.96,ESE,103,5.0,16.0,63,0.00,,---,0.02,VWS V14.01,2013-05-29 18:52:00,
2013-05-29 14:53:00,84.1,70.6,29.96,East,82,8.0,16.0,64,0.00,,---,0.02,VWS V14.01,2013-05-29 18:53:00,
2013-05-29 14:54:00,84.0,70.5,29.96,SSE,149,4.0,16.0,64,0.00,,---,0.02,VWS V14.01,2013-05-29 18:54:00,
2013-05-29 14:55:00,83.8,70.8,29.96,East,81,5.0,16.0,65,0.00,,---,0.02,VWS V14.01,2013-05-29 18:55:00,
2013-05-29 14:58:00,83.2,71.1,29.96,East,88,1.0,16.0,67,0.00,,---,0.02,VWS V14.01,2013-05-29 18:58:00,
2013-05-29 14:59:00,83.0,71.4,29.96,ENE,77,1.0,16.0,68,0.00,,---,0.02,VWS V14.01,2013-05-29 18:59:00,
2013-05-29 15:00:00,83.0,71.4,29.96,ENE,77,1.0,16.0,68,0.00,,---,0.02,VWS V14.01,2013-05-29 19:00:00,
2013-05-29 15:01:00,83.0,71.8,29.96,ENE,76,0.0,16.0,69,0.00,,---,0.02,VWS V14.01,2013-05-29 19:01:00,
2013-05-29 15:03:00,83.2,71.6,29.95,East,94,5.0,16.0,68,0.00,,---,0.02,VWS V14.01,2013-05-29 19:03:00,
2013-05-29 15:04:00,83.2,71.6,29.95,East,98,4.0,6.0,68,0.00,,---,0.02,VWS V14.01,2013-05-29 19:04:00,
2013-05-29 15:05:00,83.4,71.7,29.95,SE,127,0.0,7.0,68,0.00,,---,0.02,VWS V14.01,2013-05-29 19:05:00,
2013-05-29 15:08:00,83.6,71.5,29.95,ESE,116,1.0,7.0,67,0.00,,---,0.02,VWS V14.01,2013-05-29 19:08:00,
2013-05-29 15:10:00,83.4,71.3,29.95,East,88,8.0,10.0,67,0.00,,---,0.02,VWS V14.01,2013-05-29 19:10:00,
2013-05-29 15:11:00,83.4,71.3,29.95,SE,124,2.0,10.0,67,0.00,,---,0.02,VWS V14.01,2013-05-29 19:11:00,
2013-05-29 15:13:00,83.2,71.1,29.95,East,99,0.0,10.0,67,0.00,,---,0.02,VWS V14.01,2013-05-29 19:13:00,
2013-05-29 15:14:00,83.2,70.7,29.95,SE,129,8.0,10.0,66,0.00,,---,0.02,VWS V14.01,2013-05-29 19:14:00,
2013-05-29 15:17:00,83.2,70.7,29.95,ESE,105,4.0,10.0,66,0.00,,---,0.02,VWS V14.01,2013-05-29 19:17:00,
2013-05-29 15:18:00,83.2,70.7,29.94,ESE,108,8.0,10.0,66,0.00,,---,0.02,VWS V14.01,2013-05-29 19:18:00,
2013-05-29 15:19:00,83.4,70.9,29.94,ESE,105,0.0,10.0,66,0.00,,---,0.02,VWS V14.01,2013-05-29 19:19:00,
2013-05-29 15:22:00,83.6,70.6,29.94,ESE,114,7.0,10.0,65,0.00,,---,0.02,VWS V14.01,2013-05-29 19:22:00,
2013-05-29 15:24:00,84.0,71.0,29.94,East,84,0.0,10.0,65,0.00,,---,0.02,VWS V14.01,2013-05-29 19:24:00,
2013-05-29 15:25:00,84.1,71.1,29.94,ESE,115,13.0,13.0,65,0.00,,---,0.02,VWS V14.01,2013-05-29 19:25:00,
2013-05-29 15:27:00,84.3,69.9,29.94,ESE,117,3.0,13.0,62,0.00,,---,0.02,VWS V14.01,2013-05-29 19:27:00,
2013-05-29 15:28:00,84.5,69.1,29.94,SE,125,1.0,13.0,60,0.00,,---,0.02,VWS V14.01,2013-05-29 19:28:00,
2013-05-29 15:30:00,84.7,69.8,29.94,SE,132,5.0,13.0,61,0.00,,---,0.02,VWS V14.01,2013-05-29 19:30:00,
2013-05-29 15:33:00,85.5,69.1,29.95,East,83,9.0,13.0,58,0.00,,---,0.02,VWS V14.01,2013-05-29 19:33:00,
2013-05-29 15:34:00,85.5,69.1,29.95,ENE,59,8.0,14.0,58,0.00,,---,0.02,VWS V14.01,2013-05-29 19:34:00,
2013-05-29 15:36:00,85.5,69.1,29.95,ENE,70,2.0,14.0,58,0.00,,---,0.02,VWS V14.01,2013-05-29 19:36:00,
2013-05-29 15:37:00,85.7,69.2,29.95,East,100,4.0,14.0,58,0.00,,---,0.02,VWS V14.01,2013-05-29 19:37:00,
2013-05-29 15:39:00,85.7,68.7,29.95,ESE,117,13.0,14.0,57,0.00,,---,0.02,VWS V14.01,2013-05-29 19:39:00,
2013-05-29 15:40:00,85.7,68.7,29.95,NE,40,8.0,14.0,57,0.00,,---,0.02,VWS V14.01,2013-05-29 19:40:00,
2013-05-29 15:41:00,85.9,67.9,29.95,SE,136,13.0,18.0,55,0.00,,---,0.02,VWS V14.01,2013-05-29 19:41:00,
2013-05-29 15:43:00,85.9,68.4,29.95,East,80,1.0,18.0,56,0.00,,---,0.02,VWS V14.01,2013-05-29 19:43:00,
2013-05-29 15:46:00,86.3,69.3,29.95,ESE,114,8.0,18.0,57,0.00,,---,0.02,VWS V14.01,2013-05-29 19:46:00,
2013-05-29 15:47:00,86.3,69.3,29.95,ESE,120,4.0,18.0,57,0.00,,---,0.02,VWS V14.01,2013-05-29 19:47:00,
2013-05-29 15:48:00,86.5,68.4,29.94,East,84,7.0,18.0,55,0.00,,---,0.02,VWS V14.01,2013-05-29 19:48:00,
2013-05-29 15:52:00,86.5,69.0,29.94,ENE,75,5.0,18.0,56,0.00,,---,0.02,VWS V14.01,2013-05-29 19:52:00,
2013-05-29 15:53:00,86.7,68.6,29.94,ENE,65,4.0,18.0,55,0.00,,---,0.02,VWS V14.01,2013-05-29 19:53:00,
2013-05-29 15:54:00,86.7,69.1,29.94,ENE,58,9.0,18.0,56,0.00,,---,0.02,VWS V14.01,2013-05-29 19:54:00,
2013-05-29 15:56:00,86.5,69.0,29.94,East,91,4.0,18.0,56,0.00,,---,0.02,VWS V14.01,2013-05-29 19:56:00,
2013-05-29 15:57:00,86.5,69.0,29.94,ENE,71,2.0,18.0,56,0.00,,---,0.02,VWS V14.01,2013-05-29 19:57:00,
2013-05-29 15:58:00,86.3,69.3,29.94,East,86,2.0,18.0,57,0.00,,---,0.02,VWS V14.01,2013-05-29 19:58:00,
2013-05-29 16:00:00,86.3,69.3,29.94,East,96,8.0,18.0,57,0.00,,---,0.02,VWS V14.01,2013-05-29 20:00:00,
2013-05-29 16:02:00,86.1,68.6,29.94,ESE,103,8.0,18.0,56,0.00,,---,0.02,VWS V14.01,2013-05-29 20:02:00,
2013-05-29 16:03:00,86.1,68.6,29.94,NE,56,4.0,18.0,56,0.00,,---,0.02,VWS V14.01,2013-05-29 20:03:00,
2013-05-29 16:04:00,86.3,68.8,29.94,ESE,115,0.0,18.0,56,0.00,,---,0.02,VWS V14.01,2013-05-29 20:04:00,
2013-05-29 16:05:00,86.7,68.1,29.94,ESE,116,5.0,14.0,54,0.00,,---,0.02,VWS V14.01,2013-05-29 20:05:00,
2013-05-29 16:07:00,87.0,68.4,29.94,East,101,3.0,19.0,54,0.00,,---,0.02,VWS V14.01,2013-05-29 20:07:00,
2013-05-29 16:08:00,87.2,68.5,29.94,East,89,8.0,19.0,54,0.00,,---,0.02,VWS V14.01,2013-05-29 20:08:00,
2013-05-29 16:09:00,87.4,68.7,29.94,East,92,3.0,19.0,54,0.00,,---,0.02,VWS V14.01,2013-05-29 20:09:00,
2013-05-29 16:12:00,87.6,68.4,29.94,East,99,3.0,19.0,53,0.00,,---,0.02,VWS V14.01,2013-05-29 20:12:00,
2013-05-29 16:14:00,87.6,69.4,29.94,ESE,110,8.0,19.0,55,0.00,,---,0.02,VWS V14.01,2013-05-29 20:14:00,
2013-05-29 16:17:00,87.8,69.1,29.94,ESE,110,6.0,19.0,54,0.00,,---,0.02,VWS V14.01,2013-05-29 20:17:00,
2013-05-29 16:19:00,87.8,69.1,29.93,ESE,117,10.0,19.0,54,0.00,,---,0.02,VWS V14.01,2013-05-29 20:19:00,
2013-05-29 16:20:00,87.8,69.1,29.93,SE,130,11.0,19.0,54,0.00,,---,0.02,VWS V14.01,2013-05-29 20:20:00,
2013-05-29 16:21:00,87.6,68.9,29.93,SSE,150,21.0,21.0,54,0.00,,---,0.02,VWS V14.01,2013-05-29 20:21:00,
2013-05-29 16:25:00,87.2,69.1,29.93,ESE,117,5.0,21.0,55,0.00,,---,0.02,VWS V14.01,2013-05-29 20:25:00,
2013-05-29 16:27:00,86.7,69.7,29.93,East,86,10.0,21.0,57,0.00,,---,0.02,VWS V14.01,2013-05-29 20:27:00,
2013-05-29 16:28:00,86.7,69.7,29.93,ESE,106,6.0,21.0,57,0.00,,---,0.02,VWS V14.01,2013-05-29 20:28:00,
2013-05-29 16:30:00,85.9,69.4,29.93,SE,127,0.0,21.0,58,0.00,,---,0.02,VWS V14.01,2013-05-29 20:30:00,
2013-05-29 16:31:00,85.9,69.9,29.93,South,172,5.0,21.0,59,0.00,,---,0.02,VWS V14.01,2013-05-29 20:31:00,
2013-05-29 16:33:00,85.5,69.6,29.93,East,94,0.0,21.0,59,0.00,,---,0.02,VWS V14.01,2013-05-29 20:33:00,
2013-05-29 16:36:00,85.3,69.4,29.93,SSE,162,14.0,21.0,59,0.00,,---,0.02,VWS V14.01,2013-05-29 20:36:00,
2013-05-29 16:37:00,85.1,69.2,29.93,East,84,4.0,21.0,59,0.00,,---,0.02,VWS V14.01,2013-05-29 20:37:00,
2013-05-29 16:41:00,84.7,68.8,29.93,SE,141,1.0,21.0,59,0.00,,---,0.02,VWS V14.01,2013-05-29 20:41:00,
2013-05-29 16:42:00,84.5,69.1,29.93,SSE,153,8.0,21.0,60,0.00,,---,0.02,VWS V14.01,2013-05-29 20:42:00,
2013-05-29 16:43:00,84.3,68.9,29.93,ESE,106,14.0,21.0,60,0.00,,---,0.02,VWS V14.01,2013-05-29 20:43:00,
2013-05-29 16:47:00,84.0,68.6,29.93,SSE,160,12.0,21.0,60,0.00,,---,0.02,VWS V14.01,2013-05-29 20:47:00,
2013-05-29 16:48:00,84.0,68.6,29.93,ESE,110,7.0,21.0,60,0.00,,---,0.02,VWS V14.01,2013-05-29 20:48:00,
2013-05-29 16:49:00,83.8,68.4,29.93,East,92,3.0,21.0,60,0.00,,---,0.02,VWS V14.01,2013-05-29 20:49:00,
2013-05-29 16:52:00,83.6,68.7,29.93,SE,126,4.0,21.0,61,0.00,,---,0.02,VWS V14.01,2013-05-29 20:52:00,
2013-05-29 16:54:00,83.6,69.2,29.93,ESE,119,10.0,21.0,62,0.00,,---,0.02,VWS V14.01,2013-05-29 20:54:00,
2013-05-29 16:56:00,83.4,68.6,29.93,ESE,110,7.0,21.0,61,0.00,,---,0.02,VWS V14.01,2013-05-29 20:56:00,
2013-05-29 16:57:00,83.2,68.8,29.93,SE,128,1.0,21.0,62,0.00,,---,0.02,VWS V14.01,2013-05-29 20:57:00,
2013-05-29 16:59:00,83.0,68.7,29.93,NE,56,7.0,21.0,62,0.00,,---,0.02,VWS V14.01,2013-05-29 20:59:00,
2013-05-29 17:00:00,82.8,68.9,29.93,ESE,109,7.0,21.0,63,0.00,,---,0.02,VWS V14.01,2013-05-29 21:00:00,
2013-05-29 17:01:00,82.6,69.2,29.93,East,99,0.0,21.0,64,0.00,,---,0.02,VWS V14.01,2013-05-29 21:01:00,
2013-05-29 17:02:00,82.6,69.2,29.93,East,99,0.0,21.0,64,0.00,,---,0.02,VWS V14.01,2013-05-29 21:02:00,
2013-05-29 17:05:00,81.8,68.4,29.94,ENE,77,10.0,12.0,64,0.00,,---,0.02,VWS V14.01,2013-05-29 21:05:00,
2013-05-29 17:06:00,81.6,68.7,29.94,ENE,60,5.0,12.0,65,0.00,,---,0.02,VWS V14.01,2013-05-29 21:06:00,
2013-05-29 17:07:00,81.4,68.5,29.94,SE,143,4.0,12.0,65,0.00,,---,0.02,VWS V14.01,2013-05-29 21:07:00,
2013-05-29 17:08:00,81.2,68.8,29.94,ESE,117,1.0,12.0,66,0.00,,---,0.02,VWS V14.01,2013-05-29 21:08:00,
2013-05-29 17:10:00,81.1,68.7,29.94,ENE,60,5.0,14.0,66,0.00,,---,0.02,VWS V14.01,2013-05-29 21:10:00,
2013-05-29 17:12:00,81.1,69.1,29.94,East,82,3.0,14.0,67,0.00,,---,0.02,VWS V14.01,2013-05-29 21:12:00,
2013-05-29 17:14:00,80.9,68.9,29.94,ESE,107,10.0,14.0,67,0.00,,---,0.02,VWS V14.01,2013-05-29 21:14:00,
2013-05-29 17:16:00,80.9,68.9,29.94,NE,51,1.0,14.0,67,0.00,,---,0.02,VWS V14.01,2013-05-29 21:16:00,
2013-05-29 17:17:00,80.7,68.7,29.94,NNE,23,8.0,14.0,67,0.00,,---,0.02,VWS V14.01,2013-05-29 21:17:00,
2013-05-29 17:18:00,80.7,68.7,29.95,NE,44,0.0,14.0,67,0.00,,---,0.02,VWS V14.01,2013-05-29 21:18:00,
2013-05-29 17:20:00,80.5,69.0,29.95,ESE,115,0.0,14.0,68,0.00,,---,0.02,VWS V14.01,2013-05-29 21:20:00,
2013-05-29 17:21:00,80.5,68.5,29.95,ENE,78,4.0,14.0,67,0.00,,---,0.02,VWS V14.01,2013-05-29 21:21:00,
2013-05-29 17:23:00,80.3,68.8,29.95,ESE,118,6.0,14.0,68,0.00,,---,0.02,VWS V14.01,2013-05-29 21:23:00,
2013-05-29 17:24:00,80.3,68.8,29.95,NNE,30,10.0,14.0,68,0.00,,---,0.02,VWS V14.01,2013-05-29 21:24:00,
2013-05-29 17:25:00,80.3,69.2,29.95,NNE,19,10.0,14.0,69,0.00,,---,0.02,VWS V14.01,2013-05-29 21:25:00,
2013-05-29 17:28:00,80.1,69.4,29.95,ENE,58,8.0,14.0,70,0.00,,---,0.02,VWS V14.01,2013-05-29 21:28:00,
2013-05-29 17:29:00,79.6,69.8,29.95,NNW,330,6.0,14.0,72,0.00,,---,0.02,VWS V14.01,2013-05-29 21:29:00,
2013-05-29 17:30:00,79.2,69.4,29.95,NE,51,7.0,14.0,72,0.00,,---,0.02,VWS V14.01,2013-05-29 21:30:00,
2013-05-29 17:33:00,78.5,68.3,29.95,ENE,68,7.0,14.0,71,0.00,,---,0.02,VWS V14.01,2013-05-29 21:33:00,
2013-05-29 17:34:00,78.3,68.1,29.95,NE,44,3.0,14.0,71,0.00,,---,0.02,VWS V14.01,2013-05-29 21:34:00,
2013-05-29 17:35:00,78.1,67.9,29.95,East,96,12.0,14.0,71,0.00,,---,0.02,VWS V14.01,2013-05-29 21:35:00,
2013-05-29 17:36:00,77.9,67.8,29.95,East,89,10.0,14.0,71,0.00,,---,0.02,VWS V14.01,2013-05-29 21:36:00,
2013-05-29 17:40:00,77.4,68.1,29.95,NNW,345,10.0,14.0,73,0.00,,---,0.02,VWS V14.01,2013-05-29 21:40:00,
2013-05-29 17:41:00,77.2,67.9,29.95,East,93,7.0,14.0,73,0.00,,---,0.02,VWS V14.01,2013-05-29 21:41:00,
2013-05-29 17:43:00,77.2,68.3,29.95,NE,48,7.0,14.0,74,0.00,,---,0.02,VWS V14.01,2013-05-29 21:43:00,
2013-05-29 17:46:00,77.0,68.1,29.95,NE,55,10.0,14.0,74,0.00,,---,0.02,VWS V14.01,2013-05-29 21:46:00,
2013-05-29 17:47:00,77.0,68.1,29.95,ENE,77,4.0,14.0,74,0.00,,---,0.02,VWS V14.01,2013-05-29 21:47:00,
2013-05-29 17:51:00,77.0,68.1,29.95,NE,35,8.0,14.0,74,0.00,,---,0.02,VWS V14.01,2013-05-29 21:51:00,
2013-05-29 17:52:00,77.0,68.1,29.95,NE,38,6.0,14.0,74,0.00,,---,0.02,VWS V14.01,2013-05-29 21:52:00,
2013-05-29 17:53:00,77.0,68.1,29.95,NE,47,4.0,14.0,74,0.00,,---,0.02,VWS V14.01,2013-05-29 21:53:00,
2013-05-29 17:54:00,77.0,68.1,29.95,ENE,59,8.0,14.0,74,0.00,,---,0.02,VWS V14.01,2013-05-29 21:54:00,
2013-05-29 17:57:00,77.2,68.3,29.95,ENE,78,5.0,14.0,74,0.00,,---,0.02,VWS V14.01,2013-05-29 21:57:00,
2013-05-29 17:58:00,77.2,68.3,29.95,ENE,64,4.0,14.0,74,0.00,,---,0.02,VWS V14.01,2013-05-29 21:58:00,
2013-05-29 17:59:00,77.2,67.9,29.95,NNE,20,7.0,14.0,73,0.00,,---,0.02,VWS V14.01,2013-05-29 21:59:00,
2013-05-29 18:02:00,77.2,68.3,29.95,ENE,63,2.0,14.0,74,0.00,,---,0.02,VWS V14.01,2013-05-29 22:02:00,
2013-05-29 18:03:00,77.2,68.3,29.95,ENE,62,0.0,14.0,74,0.00,,---,0.02,VWS V14.01,2013-05-29 22:03:00,
2013-05-29 18:04:00,77.2,68.3,29.95,North,0,7.0,14.0,74,0.00,,---,0.02,VWS V14.01,2013-05-29 22:04:00,
2013-05-29 18:05:00,77.2,68.7,29.95,NE,52,8.0,12.0,75,0.00,,---,0.02,VWS V14.01,2013-05-29 22:05:00,
2013-05-29 18:08:00,77.0,68.9,29.95,NE,52,8.0,12.0,76,0.00,,---,0.02,VWS V14.01,2013-05-29 22:08:00,
2013-05-29 18:09:00,77.0,68.9,29.95,East,82,9.0,12.0,76,0.00,,---,0.02,VWS V14.01,2013-05-29 22:09:00,
2013-05-29 18:10:00,76.8,68.7,29.95,North,355,6.0,12.0,76,0.00,,---,0.02,VWS V14.01,2013-05-29 22:10:00,
2013-05-29 18:11:00,76.8,68.7,29.95,NE,53,4.0,12.0,76,0.00,,---,0.02,VWS V14.01,2013-05-29 22:11:00,
2013-05-29 18:15:00,76.8,69.1,29.95,NE,55,5.0,12.0,77,0.00,,---,0.02,VWS V14.01,2013-05-29 22:15:00,
2013-05-29 18:16:00,76.8,69.1,29.95,NE,56,6.0,12.0,77,0.00,,---,0.02,VWS V14.01,2013-05-29 22:16:00,
2013-05-29 18:17:00,76.8,69.1,29.95,NE,49,7.0,12.0,77,0.00,,---,0.02,VWS V14.01,2013-05-29 22:17:00,
2013-05-29 18:21:00,76.8,69.4,29.94,ENE,68,5.0,12.0,78,0.00,,---,0.02,VWS V14.01,2013-05-29 22:21:00,
2013-05-29 18:22:00,76.8,69.4,29.94,ENE,60,6.0,12.0,78,0.00,,---,0.02,VWS V14.01,2013-05-29 22:22:00,
2013-05-29 18:24:00,76.8,69.4,29.94,NE,37,7.0,12.0,78,0.00,,---,0.02,VWS V14.01,2013-05-29 22:24:00,
2013-05-29 18:26:00,76.8,69.4,29.94,NE,48,5.0,12.0,78,0.00,,---,0.02,VWS V14.01,2013-05-29 22:26:00,
2013-05-29 18:27:00,76.8,69.4,29.94,NE,54,4.0,12.0,78,0.00,,---,0.02,VWS V14.01,2013-05-29 22:27:00,
2013-05-29 18:29:00,76.8,69.4,29.94,ENE,77,5.0,12.0,78,0.00,,---,0.02,VWS V14.01,2013-05-29 22:29:00,
2013-05-29 18:32:00,76.8,69.4,29.94,NE,39,8.0,12.0,78,0.00,,---,0.02,VWS V14.01,2013-05-29 22:32:00,
2013-05-29 18:33:00,76.8,69.4,29.94,NE,40,1.0,12.0,78,0.00,,---,0.02,VWS V14.01,2013-05-29 22:33:00,
2013-05-29 18:34:00,76.8,69.4,29.94,East,86,4.0,12.0,78,0.00,,---,0.02,VWS V14.01,2013-05-29 22:34:00,
2013-05-29 18:35:00,77.0,69.6,29.94,ENE,59,6.0,12.0,78,0.00,,---,0.02,VWS V14.01,2013-05-29 22:35:00,
2013-05-29 18:38:00,77.0,69.6,29.94,NNE,27,6.0,12.0,78,0.00,,---,0.02,VWS V14.01,2013-05-29 22:38:00,
2013-05-29 18:39:00,77.0,69.6,29.94,NE,38,6.0,12.0,78,0.00,,---,0.02,VWS V14.01,2013-05-29 22:39:00,
2013-05-29 18:40:00,77.0,69.6,29.94,NE,35,6.0,12.0,78,0.00,,---,0.02,VWS V14.01,2013-05-29 22:40:00,
2013-05-29 18:41:00,77.0,69.6,29.94,North,353,5.0,12.0,78,0.00,,---,0.02,VWS V14.01,2013-05-29 22:41:00,
2013-05-29 18:42:00,77.2,69.8,29.94,NNE,32,5.0,12.0,78,0.00,,---,0.02,VWS V14.01,2013-05-29 22:42:00,
2013-05-29 18:44:00,77.2,69.8,29.94,ENE,58,5.0,12.0,78,0.00,,---,0.02,VWS V14.01,2013-05-29 22:44:00,
2013-05-29 18:46:00,77.2,69.8,29.94,ENE,69,4.0,12.0,78,0.00,,---,0.02,VWS V14.01,2013-05-29 22:46:00,
2013-05-29 18:47:00,77.0,69.6,29.94,NNE,24,0.0,12.0,78,0.00,,---,0.02,VWS V14.01,2013-05-29 22:47:00,
2013-05-29 18:49:00,77.0,69.6,29.94,NE,44,4.0,12.0,78,0.00,,---,0.02,VWS V14.01,2013-05-29 22:49:00,
2013-05-29 18:52:00,77.0,69.6,29.94,NE,56,6.0,12.0,78,0.00,,---,0.02,VWS V14.01,2013-05-29 22:52:00,
2013-05-29 18:53:00,77.0,70.0,29.94,NNW,333,7.0,12.0,79,0.00,,---,0.02,VWS V14.01,2013-05-29 22:53:00,
2013-05-29 18:55:00,77.0,70.0,29.94,NE,45,4.0,12.0,79,0.00,,---,0.02,VWS V14.01,2013-05-29 22:55:00,
2013-05-29 18:58:00,77.0,70.0,29.94,North,358,7.0,12.0,79,0.00,,---,0.02,VWS V14.01,2013-05-29 22:58:00,
2013-05-29 18:59:00,76.8,69.8,29.94,NNE,32,5.0,12.0,79,0.00,,---,0.02,VWS V14.01,2013-05-29 22:59:00,
2013-05-29 19:00:00,76.8,69.8,29.94,ENE,70,8.0,12.0,79,0.00,,---,0.02,VWS V14.01,2013-05-29 23:00:00,
2013-05-29 19:02:00,76.8,69.8,29.94,NNE,13,4.0,12.0,79,0.00,,---,0.02,VWS V14.01,2013-05-29 23:02:00,
2013-05-29 19:04:00,76.8,70.2,29.94,North,358,2.0,2.0,80,0.00,,---,0.02,VWS V14.01,2013-05-29 23:04:00,
2013-05-29 19:06:00,76.7,70.1,29.94,NE,49,7.0,10.0,80,0.00,,---,0.02,VWS V14.01,2013-05-29 23:06:00,
2013-05-29 19:07:00,76.7,70.1,29.94,East,89,7.0,12.0,80,0.00,,---,0.02,VWS V14.01,2013-05-29 23:07:00,
2013-05-29 19:08:00,76.7,70.1,29.94,NE,56,0.0,12.0,80,0.00,,---,0.02,VWS V14.01,2013-05-29 23:08:00,
2013-05-29 19:09:00,76.7,70.1,29.94,ENE,68,6.0,12.0,80,0.00,,---,0.02,VWS V14.01,2013-05-29 23:09:00,
2013-05-29 19:11:00,76.7,70.1,29.94,North,359,4.0,12.0,80,0.00,,---,0.02,VWS V14.01,2013-05-29 23:11:00,
2013-05-29 19:13:00,76.5,69.9,29.94,ENE,65,14.0,14.0,80,0.00,,---,0.02,VWS V14.01,2013-05-29 23:13:00,
2013-05-29 19:14:00,76.5,69.9,29.94,ENE,68,4.0,14.0,80,0.00,,---,0.02,VWS V14.01,2013-05-29 23:14:00,
2013-05-29 19:15:00,76.5,69.9,29.94,NE,42,5.0,14.0,80,0.00,,---,0.02,VWS V14.01,2013-05-29 23:15:00,
2013-05-29 19:18:00,76.5,69.9,29.94,East,81,5.0,14.0,80,0.00,,---,0.02,VWS V14.01,2013-05-29 23:18:00,
2013-05-29 19:19:00,76.5,69.9,29.94,East,81,0.0,14.0,80,0.00,,---,0.02,VWS V14.01,2013-05-29 23:19:00,
2013-05-29 19:20:00,76.5,69.9,29.94,NE,53,4.0,14.0,80,0.00,,---,0.02,VWS V14.01,2013-05-29 23:20:00,
2013-05-29 19:24:00,76.5,69.5,29.94,NE,51,3.0,14.0,79,0.00,,---,0.02,VWS V14.01,2013-05-29 23:24:00,
2013-05-29 19:25:00,76.5,69.5,29.94,NE,34,5.0,14.0,79,0.00,,---,0.02,VWS V14.01,2013-05-29 23:25:00,
2013-05-29 19:26:00,76.5,69.5,29.94,ENE,62,13.0,14.0,79,0.00,,---,0.02,VWS V14.01,2013-05-29 23:26:00,
2013-05-29 19:30:00,76.5,69.5,29.94,ENE,74,0.0,14.0,79,0.00,,---,0.02,VWS V14.01,2013-05-29 23:30:00,
2013-05-29 19:31:00,76.5,69.5,29.94,NE,44,5.0,14.0,79,0.00,,---,0.02,VWS V14.01,2013-05-29 23:31:00,
2013-05-29 19:32:00,76.5,69.5,29.94,NNE,19,5.0,14.0,79,0.00,,---,0.02,VWS V14.01,2013-05-29 23:32:00,
2013-05-29 19:36:00,76.5,69.5,29.94,East,83,4.0,14.0,79,0.00,,---,0.02,VWS V14.01,2013-05-29 23:36:00,
2013-05-29 19:38:00,76.5,69.1,29.94,SE,125,0.0,14.0,78,0.00,,---,0.02,VWS V14.01,2013-05-29 23:38:00,
2013-05-29 19:41:00,76.5,69.1,29.94,NE,49,7.0,14.0,78,0.00,,---,0.02,VWS V14.01,2013-05-29 23:41:00,
2013-05-29 19:42:00,76.5,69.1,29.94,East,89,6.0,14.0,78,0.00,,---,0.02,VWS V14.01,2013-05-29 23:42:00,
2013-05-29 19:44:00,76.5,69.1,29.94,NNE,15,0.0,14.0,78,0.00,,---,0.02,VWS V14.01,2013-05-29 23:44:00,
2013-05-29 19:46:00,76.5,69.1,29.94,NE,41,4.0,14.0,78,0.00,,---,0.02,VWS V14.01,2013-05-29 23:46:00,
2013-05-29 19:47:00,76.5,69.1,29.94,ENE,68,5.0,14.0,78,0.00,,---,0.02,VWS V14.01,2013-05-29 23:47:00,
2013-05-29 19:49:00,76.5,69.1,29.95,East,92,0.0,14.0,78,0.00,,---,0.02,VWS V14.01,2013-05-29 23:49:00,
2013-05-29 19:50:00,76.7,69.7,29.95,East,98,9.0,14.0,79,0.00,,---,0.02,VWS V14.01,2013-05-29 23:50:00,
2013-05-29 19:52:00,76.7,69.7,29.95,ENE,71,6.0,14.0,79,0.00,,---,0.02,VWS V14.01,2013-05-29 23:52:00,
2013-05-29 19:54:00,76.7,69.7,29.95,NE,38,4.0,14.0,79,0.00,,---,0.02,VWS V14.01,2013-05-29 23:54:00,
2013-05-29 19:55:00,76.7,69.7,29.95,ESE,104,8.0,14.0,79,0.00,,---,0.02,VWS V14.01,2013-05-29 23:55:00,
2013-05-29 19:56:00,76.7,69.7,29.95,ENE,60,7.0,14.0,79,0.00,,---,0.02,VWS V14.01,2013-05-29 23:56:00,
2013-05-29 19:57:00,76.7,69.7,29.95,East,86,3.0,14.0,79,0.00,,---,0.02,VWS V14.01,2013-05-29 23:57:00,
2013-05-29 19:59:00,76.7,69.7,29.95,ENE,76,0.0,14.0,79,0.00,,---,0.02,VWS V14.01,2013-05-29 23:59:00,
2013-05-29 20:01:00,76.7,69.7,29.95,ESE,113,8.0,14.0,79,0.00,,---,0.02,VWS V14.01,2013-05-30 00:01:00,
2013-05-29 20:03:00,76.7,69.7,29.95,ENE,58,5.0,14.0,79,0.00,,---,0.02,VWS V14.01,2013-05-30 00:03:00,
2013-05-29 20:04:00,76.7,69.7,29.95,ENE,59,2.0,14.0,79,0.00,,---,0.02,VWS V14.01,2013-05-30 00:04:00,
2013-05-29 20:06:00,76.7,69.7,29.95,NE,53,5.0,8.0,79,0.00,,---,0.02,VWS V14.01,2013-05-30 00:06:00,
2013-05-29 20:07:00,76.7,69.7,29.95,ESE,116,2.0,8.0,79,0.00,,---,0.02,VWS V14.01,2013-05-30 00:07:00,
2013-05-29 20:08:00,76.7,69.7,29.95,ESE,102,2.0,8.0,79,0.00,,---,0.02,VWS V14.01,2013-05-30 00:08:00,
2013-05-29 20:10:00,76.7,69.7,29.95,East,93,0.0,8.0,79,0.00,,---,0.02,VWS V14.01,2013-05-30 00:10:00,
2013-05-29 20:11:00,76.7,69.7,29.95,East,93,1.0,8.0,79,0.00,,---,0.02,VWS V14.01,2013-05-30 00:11:00,
2013-05-29 20:13:00,76.7,69.7,29.95,NE,53,0.0,8.0,79,0.00,,---,0.02,VWS V14.01,2013-05-30 00:13:00,
2013-05-29 20:15:00,76.7,70.1,29.95,NNE,23,5.0,8.0,80,0.00,,---,0.02,VWS V14.01,2013-05-30 00:15:00,
2013-05-29 20:17:00,76.7,70.1,29.95,East,89,0.0,8.0,80,0.00,,---,0.02,VWS V14.01,2013-05-30 00:17:00,
2013-05-29 20:18:00,76.7,70.1,29.95,East,89,0.0,8.0,80,0.00,,---,0.02,VWS V14.01,2013-05-30 00:18:00,
2013-05-29 20:19:00,76.7,70.1,29.95,ENE,67,6.0,8.0,80,0.00,,---,0.02,VWS V14.01,2013-05-30 00:19:00,
2013-05-29 20:21:00,76.7,70.1,29.95,ENE,67,0.0,8.0,80,0.00,,---,0.02,VWS V14.01,2013-05-30 00:21:00,
2013-05-29 20:23:00,76.5,69.9,29.95,ENE,67,0.0,8.0,80,0.00,,---,0.02,VWS V14.01,2013-05-30 00:23:00,
2013-05-29 20:24:00,76.5,69.9,29.95,ENE,67,0.0,8.0,80,0.00,,---,0.02,VWS V14.01,2013-05-30 00:24:00,
2013-05-29 20:26:00,76.5,69.9,29.95,ENE,68,2.0,8.0,80,0.00,,---,0.02,VWS V14.01,2013-05-30 00:26:00,
2013-05-29 20:27:00,76.5,69.9,29.95,ENE,76,1.0,8.0,80,0.00,,---,0.02,VWS V14.01,2013-05-30 00:27:00,
2013-05-29 20:29:00,76.5,69.9,29.95,ENE,72,2.0,8.0,80,0.00,,---,0.02,VWS V14.01,2013-05-30 00:29:00,
2013-05-29 20:31:00,76.5,69.9,29.95,ENE,72,0.0,8.0,80,0.00,,---,0.02,VWS V14.01,2013-05-30 00:31:00,
2013-05-29 20:33:00,76.5,69.9,29.96,ENE,68,0.0,8.0,80,0.00,,---,0.02,VWS V14.01,2013-05-30 00:33:00,
2013-05-29 20:35:00,76.5,69.9,29.96,ENE,73,2.0,8.0,80,0.00,,---,0.02,VWS V14.01,2013-05-30 00:35:00,
2013-05-29 20:37:00,76.5,69.9,29.96,East,84,5.0,8.0,80,0.00,,---,0.02,VWS V14.01,2013-05-30 00:37:00,
2013-05-29 20:38:00,76.5,69.9,29.96,East,84,0.0,8.0,80,0.00,,---,0.02,VWS V14.01,2013-05-30 00:38:00,
2013-05-29 20:42:00,76.5,69.9,29.96,East,98,4.0,8.0,80,0.00,,---,0.02,VWS V14.01,2013-05-30 00:42:00,
2013-05-29 20:43:00,76.5,69.9,29.96,East,98,3.0,8.0,80,0.00,,---,0.02,VWS V14.01,2013-05-30 00:43:00,
2013-05-29 20:44:00,76.3,69.7,29.96,East,94,0.0,8.0,80,0.00,,---,0.02,VWS V14.01,2013-05-30 00:44:00,
2013-05-29 20:46:00,76.3,69.7,29.96,East,96,0.0,8.0,80,0.00,,---,0.02,VWS V14.01,2013-05-30 00:46:00,
2013-05-29 20:48:00,76.3,70.1,29.95,East,96,4.0,8.0,81,0.00,,---,0.02,VWS V14.01,2013-05-30 00:48:00,
2013-05-29 20:49:00,76.3,69.7,29.95,East,95,0.0,8.0,80,0.00,,---,0.02,VWS V14.01,2013-05-30 00:49:00,
2013-05-29 20:53:00,76.3,69.7,29.95,ESE,107,0.0,8.0,80,0.00,,---,0.02,VWS V14.01,2013-05-30 00:53:00,
2013-05-29 20:54:00,76.3,69.7,29.95,East,94,6.0,8.0,80,0.00,,---,0.02,VWS V14.01,2013-05-30 00:54:00,
2013-05-29 20:56:00,76.3,69.7,29.95,East,94,0.0,8.0,80,0.00,,---,0.02,VWS V14.01,2013-05-30 00:56:00,
2013-05-29 20:57:00,76.5,69.9,29.95,East,94,0.0,8.0,80,0.00,,---,0.02,VWS V14.01,2013-05-30 00:57:00,
2013-05-29 21:00:00,76.5,69.9,29.95,ENE,60,1.0,8.0,80,0.00,,---,0.02,VWS V14.01,2013-05-30 01:00:00,
2013-05-29 21:01:00,76.5,69.9,29.95,ENE,60,0.0,8.0,80,0.00,,---,0.02,VWS V14.01,2013-05-30 01:01:00,
2013-05-29 21:02:00,76.5,69.9,29.95,ENE,68,4.0,8.0,80,0.00,,---,0.02,VWS V14.01,2013-05-30 01:02:00,
2013-05-29 21:03:00,76.5,69.9,29.95,ENE,73,1.0,8.0,80,0.00,,---,0.02,VWS V14.01,2013-05-30 01:03:00,
2013-05-29 21:06:00,76.5,69.9,29.95,East,82,0.0,4.0,80,0.00,,---,0.02,VWS V14.01,2013-05-30 01:06:00,
2013-05-29 21:07:00,76.5,69.9,29.95,East,82,0.0,4.0,80,0.00,,---,0.02,VWS V14.01,2013-05-30 01:07:00,
2013-05-29 21:08:00,76.5,69.9,29.95,ESE,120,0.0,4.0,80,0.00,,---,0.02,VWS V14.01,2013-05-30 01:08:00,
2013-05-29 21:12:00,76.5,69.9,29.95,East,98,0.0,8.0,80,0.00,,---,0.02,VWS V14.01,2013-05-30 01:12:00,
2013-05-29 21:14:00,76.5,69.9,29.95,East,98,0.0,8.0,80,0.00,,---,0.02,VWS V14.01,2013-05-30 01:14:00,
2013-05-29 21:16:00,76.5,69.9,29.95,East,98,0.0,8.0,80,0.00,,---,0.02,VWS V14.01,2013-05-30 01:16:00,
2013-05-29 21:17:00,76.5,69.9,29.95,ESE,103,5.0,8.0,80,0.00,,---,0.02,VWS V14.01,2013-05-30 01:17:00,
2013-05-29 21:18:00,76.5,69.9,29.95,East,89,0.0,8.0,80,0.00,,---,0.02,VWS V14.01,2013-05-30 01:18:00,
2013-05-29 21:20:00,76.5,69.9,29.95,East,81,0.0,8.0,80,0.00,,---,0.02,VWS V14.01,2013-05-30 01:20:00,
2013-05-29 21:22:00,76.5,69.9,29.95,East,96,4.0,8.0,80,0.00,,---,0.02,VWS V14.01,2013-05-30 01:22:00,
2013-05-29 21:24:00,76.5,69.9,29.95,East,95,2.0,8.0,80,0.00,,---,0.02,VWS V14.01,2013-05-30 01:24:00,
2013-05-29 21:26:00,76.3,69.7,29.95,East,96,0.0,8.0,80,0.00,,---,0.02,VWS V14.01,2013-05-30 01:26:00,
2013-05-29 21:27:00,76.3,69.7,29.95,East,96,0.0,8.0,80,0.00,,---,0.02,VWS V14.01,2013-05-30 01:27:00,
2013-05-29 21:29:00,76.3,69.7,29.95,East,96,0.0,8.0,80,0.00,,---,0.02,VWS V14.01,2013-05-30 01:29:00,
2013-05-29 21:31:00,76.3,69.7,29.95,East,96,0.0,8.0,80,0.00,,---,0.02,VWS V14.01,2013-05-30 01:31:00,
2013-05-29 21:32:00,76.3,70.1,29.95,East,96,0.0,8.0,81,0.00,,---,0.02,VWS V14.01,2013-05-30 01:32:00,
2013-05-29 21:33:00,76.3,70.1,29.95,East,96,0.0,8.0,81,0.00,,---,0.02,VWS V14.01,2013-05-30 01:33:00,
2013-05-29 21:37:00,76.3,70.1,29.96,East,96,0.0,8.0,81,0.00,,---,0.02,VWS V14.01,2013-05-30 01:37:00,
2013-05-29 21:38:00,76.3,70.1,29.96,East,96,0.0,8.0,81,0.00,,---,0.02,VWS V14.01,2013-05-30 01:38:00,
2013-05-29 21:39:00,76.3,70.1,29.96,East,96,0.0,8.0,81,0.00,,---,0.02,VWS V14.01,2013-05-30 01:39:00,
2013-05-29 21:41:00,76.3,70.1,29.96,East,96,0.0,8.0,81,0.00,,---,0.02,VWS V14.01,2013-05-30 01:41:00,
2013-05-29 21:43:00,76.1,69.8,29.96,East,96,0.0,8.0,81,0.00,,---,0.02,VWS V14.01,2013-05-30 01:43:00,
2013-05-29 21:44:00,76.1,69.8,29.96,East,96,0.0,8.0,81,0.00,,---,0.02,VWS V14.01,2013-05-30 01:44:00,
2013-05-29 21:46:00,76.1,69.8,29.96,East,96,0.0,8.0,81,0.00,,---,0.02,VWS V14.01,2013-05-30 01:46:00,
2013-05-29 21:49:00,76.1,69.8,29.97,East,97,4.0,8.0,81,0.00,,---,0.02,VWS V14.01,2013-05-30 01:49:00,
2013-05-29 21:50:00,76.1,70.2,29.97,East,97,0.0,8.0,82,0.00,,---,0.02,VWS V14.01,2013-05-30 01:50:00,
2013-05-29 21:51:00,76.0,70.1,29.97,East,96,3.0,8.0,82,0.00,,---,0.02,VWS V14.01,2013-05-30 01:51:00,
2013-05-29 21:54:00,76.0,70.1,29.97,East,96,3.0,8.0,82,0.00,,---,0.02,VWS V14.01,2013-05-30 01:54:00,
2013-05-29 21:55:00,76.0,70.1,29.97,East,96,0.0,8.0,82,0.00,,---,0.02,VWS V14.01,2013-05-30 01:55:00,
2013-05-29 21:57:00,76.0,70.1,29.97,East,96,0.0,8.0,82,0.00,,---,0.02,VWS V14.01,2013-05-30 01:57:00,
2013-05-29 22:00:00,75.8,69.9,29.97,East,96,0.0,8.0,82,0.00,,---,0.02,VWS V14.01,2013-05-30 02:00:00,
2013-05-29 22:01:00,75.8,69.9,29.97,East,96,0.0,8.0,82,0.00,,---,0.02,VWS V14.01,2013-05-30 02:01:00,
2013-05-29 22:02:00,75.8,70.3,29.97,East,97,0.0,8.0,83,0.00,,---,0.02,VWS V14.01,2013-05-30 02:02:00,
2013-05-29 22:03:00,75.6,70.1,29.97,East,97,0.0,8.0,83,0.00,,---,0.02,VWS V14.01,2013-05-30 02:03:00,
2013-05-29 22:05:00,75.6,70.1,29.97,East,96,0.0,0.0,83,0.00,,---,0.02,VWS V14.01,2013-05-30 02:05:00,
2013-05-29 22:06:00,75.6,70.1,29.97,East,96,0.0,0.0,83,0.00,,---,0.02,VWS V14.01,2013-05-30 02:06:00,
2013-05-29 22:07:00,75.4,69.9,29.97,East,95,1.0,5.0,83,0.00,,---,0.02,VWS V14.01,2013-05-30 02:07:00,
2013-05-29 22:08:00,75.4,69.9,29.97,East,95,0.0,5.0,83,0.00,,---,0.02,VWS V14.01,2013-05-30 02:08:00,
2013-05-29 22:11:00,75.4,69.9,29.97,East,95,0.0,5.0,83,0.00,,---,0.02,VWS V14.01,2013-05-30 02:11:00,
2013-05-29 22:12:00,75.3,69.8,29.97,East,95,0.0,5.0,83,0.00,,---,0.02,VWS V14.01,2013-05-30 02:12:00,
2013-05-29 22:13:00,75.3,70.1,29.97,East,95,0.0,5.0,84,0.00,,---,0.02,VWS V14.01,2013-05-30 02:13:00,
2013-05-29 22:17:00,75.3,70.1,29.97,East,95,0.0,5.0,84,0.00,,---,0.02,VWS V14.01,2013-05-30 02:17:00,
2013-05-29 22:18:00,75.3,70.1,29.97,East,95,0.0,5.0,84,0.00,,---,0.02,VWS V14.01,2013-05-30 02:18:00,
2013-05-29 22:19:00,75.1,69.9,29.97,East,94,2.0,5.0,84,0.00,,---,0.02,VWS V14.01,2013-05-30 02:19:00,
2013-05-29 22:20:00,75.1,69.9,29.97,East,94,0.0,5.0,84,0.00,,---,0.02,VWS V14.01,2013-05-30 02:20:00,
2013-05-29 22:24:00,75.1,70.3,29.97,East,94,0.0,5.0,85,0.00,,---,0.02,VWS V14.01,2013-05-30 02:24:00,
2013-05-29 22:25:00,75.1,70.3,29.97,East,94,0.0,5.0,85,0.00,,---,0.02,VWS V14.01,2013-05-30 02:25:00,
2013-05-29 22:26:00,75.1,70.3,29.97,East,94,0.0,5.0,85,0.00,,---,0.02,VWS V14.01,2013-05-30 02:26:00,
2013-05-29 22:27:00,74.9,70.1,29.97,East,94,0.0,5.0,85,0.00,,---,0.02,VWS V14.01,2013-05-30 02:27:00,
2013-05-29 22:29:00,74.9,70.1,29.97,East,94,0.0,5.0,85,0.00,,---,0.02,VWS V14.01,2013-05-30 02:29:00,
2013-05-29 22:30:00,74.9,70.1,29.97,East,94,0.0,5.0,85,0.00,,---,0.02,VWS V14.01,2013-05-30 02:30:00,
2013-05-29 22:33:00,74.9,70.1,29.97,East,94,0.0,5.0,85,0.00,,---,0.02,VWS V14.01,2013-05-30 02:33:00,
2013-05-29 22:35:00,74.9,70.1,29.97,East,94,0.0,5.0,85,0.00,,---,0.02,VWS V14.01,2013-05-30 02:35:00,
2013-05-29 22:37:00,74.7,69.9,29.97,East,94,1.0,5.0,85,0.00,,---,0.02,VWS V14.01,2013-05-30 02:37:00,
2013-05-29 22:38:00,74.7,69.9,29.97,East,94,0.0,5.0,85,0.00,,---,0.02,VWS V14.01,2013-05-30 02:38:00,
2013-05-29 22:39:00,74.7,69.9,29.97,East,94,0.0,5.0,85,0.00,,---,0.02,VWS V14.01,2013-05-30 02:39:00,
2013-05-29 22:43:00,74.7,70.2,29.97,East,94,0.0,5.0,86,0.00,,---,0.02,VWS V14.01,2013-05-30 02:43:00,
2013-05-29 22:44:00,74.6,70.1,29.97,East,94,0.0,5.0,86,0.00,,---,0.02,VWS V14.01,2013-05-30 02:44:00,
2013-05-29 22:45:00,74.6,70.1,29.97,East,94,0.0,5.0,86,0.00,,---,0.02,VWS V14.01,2013-05-30 02:45:00,
2013-05-29 22:47:00,74.6,70.1,29.97,East,94,0.0,5.0,86,0.00,,---,0.02,VWS V14.01,2013-05-30 02:47:00,
2013-05-29 22:50:00,74.6,70.1,29.97,East,94,0.0,6.0,86,0.00,,---,0.02,VWS V14.01,2013-05-30 02:50:00,
2013-05-29 22:51:00,74.6,70.5,29.97,East,94,0.0,6.0,87,0.00,,---,0.02,VWS V14.01,2013-05-30 02:51:00,
2013-05-29 22:53:00,74.6,70.5,29.97,East,94,1.0,6.0,87,0.00,,---,0.02,VWS V14.01,2013-05-30 02:53:00,
2013-05-29 22:54:00,74.6,70.5,29.97,East,94,0.0,6.0,87,0.00,,---,0.02,VWS V14.01,2013-05-30 02:54:00,
2013-05-29 22:56:00,74.4,70.3,29.97,East,94,0.0,6.0,87,0.00,,---,0.02,VWS V14.01,2013-05-30 02:56:00,
2013-05-29 22:57:00,74.4,70.3,29.97,East,98,0.0,6.0,87,0.00,,---,0.02,VWS V14.01,2013-05-30 02:57:00,
2013-05-29 23:01:00,74.4,70.3,29.97,East,98,0.0,6.0,87,0.00,,---,0.02,VWS V14.01,2013-05-30 03:01:00,
2013-05-29 23:02:00,74.4,70.3,29.97,East,100,0.0,6.0,87,0.00,,---,0.02,VWS V14.01,2013-05-30 03:02:00,
2013-05-29 23:04:00,74.4,70.3,29.97,East,81,0.0,8.0,87,0.00,,---,0.02,VWS V14.01,2013-05-30 03:04:00,
2013-05-29 23:06:00,74.4,70.3,29.97,East,82,2.0,2.0,87,0.00,,---,0.02,VWS V14.01,2013-05-30 03:06:00,
2013-05-29 23:07:00,74.4,70.3,29.97,East,82,0.0,2.0,87,0.00,,---,0.02,VWS V14.01,2013-05-30 03:07:00,
2013-05-29 23:10:00,74.4,70.3,29.97,East,82,0.0,2.0,87,0.00,,---,0.02,VWS V14.01,2013-05-30 03:10:00,
2013-05-29 23:11:00,74.2,70.1,29.97,East,82,1.0,2.0,87,0.00,,---,0.02,VWS V14.01,2013-05-30 03:11:00,
2013-05-29 23:13:00,74.2,70.4,29.97,East,98,2.0,7.0,88,0.00,,---,0.02,VWS V14.01,2013-05-30 03:13:00,
2013-05-29 23:14:00,74.2,70.4,29.97,East,96,1.0,7.0,88,0.00,,---,0.02,VWS V14.01,2013-05-30 03:14:00,
2013-05-29 23:16:00,74.2,70.4,29.97,East,96,0.0,7.0,88,0.00,,---,0.02,VWS V14.01,2013-05-30 03:16:00,
2013-05-29 23:17:00,74.2,70.4,29.97,East,96,0.0,7.0,88,0.00,,---,0.02,VWS V14.01,2013-05-30 03:17:00,
2013-05-29 23:21:00,74.2,70.4,29.97,East,96,0.0,7.0,88,0.00,,---,0.02,VWS V14.01,2013-05-30 03:21:00,
2013-05-29 23:22:00,74.0,70.2,29.97,East,96,0.0,7.0,88,0.00,,---,0.02,VWS V14.01,2013-05-30 03:22:00,
2013-05-29 23:23:00,74.0,70.2,29.97,East,96,0.0,7.0,88,0.00,,---,0.02,VWS V14.01,2013-05-30 03:23:00,
2013-05-29 23:26:00,74.0,70.2,29.97,East,100,0.0,7.0,88,0.00,,---,0.02,VWS V14.01,2013-05-30 03:26:00,
2013-05-29 23:27:00,74.0,70.2,29.97,East,100,0.0,7.0,88,0.00,,---,0.02,VWS V14.01,2013-05-30 03:27:00,
2013-05-29 23:28:00,74.0,70.2,29.97,East,100,0.0,7.0,88,0.00,,---,0.02,VWS V14.01,2013-05-30 03:28:00,
2013-05-29 23:31:00,73.9,70.1,29.97,East,101,0.0,7.0,88,0.00,,---,0.02,VWS V14.01,2013-05-30 03:31:00,
2013-05-29 23:34:00,73.9,70.1,29.97,East,100,0.0,7.0,88,0.00,,---,0.02,VWS V14.01,2013-05-30 03:34:00,
2013-05-29 23:36:00,73.9,70.1,29.97,East,100,0.0,7.0,88,0.00,,---,0.02,VWS V14.01,2013-05-30 03:36:00,
2013-05-29 23:37:00,73.9,70.1,29.97,East,100,0.0,7.0,88,0.00,,---,0.02,VWS V14.01,2013-05-30 03:37:00,
2013-05-29 23:40:00,73.9,70.1,29.97,East,100,0.0,7.0,88,0.00,,---,0.02,VWS V14.01,2013-05-30 03:40:00,
2013-05-29 23:42:00,73.7,69.9,29.97,East,100,0.0,7.0,88,0.00,,---,0.02,VWS V14.01,2013-05-30 03:42:00,
2013-05-29 23:43:00,73.7,69.9,29.97,East,99,0.0,7.0,88,0.00,,---,0.02,VWS V14.01,2013-05-30 03:43:00,
2013-05-29 23:44:00,73.7,69.9,29.97,East,99,0.0,7.0,88,0.00,,---,0.02,VWS V14.01,2013-05-30 03:44:00,
2013-05-29 23:45:00,73.7,69.9,29.97,East,99,1.0,7.0,88,0.00,,---,0.02,VWS V14.01,2013-05-30 03:45:00,
2013-05-29 23:48:00,73.7,69.9,29.97,East,98,0.0,7.0,88,0.00,,---,0.02,VWS V14.01,2013-05-30 03:48:00,
2013-05-29 23:49:00,73.7,69.9,29.97,East,98,0.0,7.0,88,0.00,,---,0.02,VWS V14.01,2013-05-30 03:49:00,
2013-05-29 23:50:00,73.7,69.9,29.97,East,98,0.0,7.0,88,0.00,,---,0.02,VWS V14.01,2013-05-30 03:50:00,
2013-05-29 23:54:00,73.7,69.6,29.97,ESE,111,0.0,7.0,87,0.00,,---,0.02,VWS V14.01,2013-05-30 03:54:00,
2013-05-29 23:55:00,73.7,69.6,29.97,ESE,110,0.0,7.0,87,0.00,,---,0.02,VWS V14.01,2013-05-30 03:55:00,
2013-05-29 23:57:00,73.5,69.4,29.97,ESE,110,7.0,7.0,87,0.00,,---,0.02,VWS V14.01,2013-05-30 03:57:00,
2013-05-29 23:59:00,73.5,69.1,29.97,ESE,110,0.0,7.0,86,0.00,,---,0.02,VWS V14.01,2013-05-30 03:59:00,